     2              OBSERVATION DATA    G                   RINEX VERSION / TYPE
Leica SKI-Pro 3.0 V3 11-9-5 16:25                           PGM / RUN BY / DATE
                                                            OBSERVER / AGENCY
23500312_1740450                                            MARKER NAME
23500312_1740450                                            MARKER NUMBER
REF1 LEICA SR530 4.20                                       REC # / TYPE / VERS
LEIAT502                                                    ANT # / TYPE
 -1355319.6580 -5232268.5927  3377351.8782                  APPROX POSITION XYZ
        2.3600        0.0000        0.0000                  ANTENNA: DELTA H/E/N
L1PhaOff: 0.0618 L2PhaOff: 0.0654                           COMMENT
     1     1                                                WAVELENGTH FACT L1/2
     4    C1    L1    P2    L2                              # / TYPES OF OBSERV
  2005     3    12    17    40   45.000000                  TIME OF FIRST OBS
  2005     3    12    23     8   35.000000                  TIME OF LAST OBS
    13                                                      LEAP SECONDS
    15                                                      # OF SATELLITES
C1 P1 L1 D1 P2 L2 D2                                        COMMENT
   G 1     0     0     0     0     0     0     0            PRN / # OF OBS
   G 2  1939     0  1939     0  1939  1939     0            PRN / # OF OBS
   G 3   192     0   192     0   189   189     0            PRN / # OF OBS
   G 4   487     0   487     0   487   487     0            PRN / # OF OBS
   G 5  1831     0  1831     0  1831  1831     0            PRN / # OF OBS
   G 6  3767     0  3767     0  3766  3766     0            PRN / # OF OBS
   G 7     0     0     0     0     0     0     0            PRN / # OF OBS
   G 8     0     0     0     0     0     0     0            PRN / # OF OBS
   G 9   408     0   408     0   406   406     0            PRN / # OF OBS
   G10  2587     0  2587     0  2587  2587     0            PRN / # OF OBS
   G11     0     0     0     0     0     0     0            PRN / # OF OBS
   G12     0     0     0     0     0     0     0            PRN / # OF OBS
   G13     0     0     0     0     0     0     0            PRN / # OF OBS
   G14   251     0   251     0   249   249     0            PRN / # OF OBS
   G15  1223     0  1223     0  1221  1221     0            PRN / # OF OBS
   G16     0     0     0     0     0     0     0            PRN / # OF OBS
   G17     0     0     0     0     0     0     0            PRN / # OF OBS
   G18  2268     0  2268     0  2266  2266     0            PRN / # OF OBS
   G19     0     0     0     0     0     0     0            PRN / # OF OBS
   G20     0     0     0     0     0     0     0            PRN / # OF OBS
   G21  2892     0  2892     0  2890  2890     0            PRN / # OF OBS
   G22  1308     0  1308     0  1307  1307     0            PRN / # OF OBS
   G23     0     0     0     0     0     0     0            PRN / # OF OBS
   G24     0     0     0     0     0     0     0            PRN / # OF OBS
   G25     0     0     0     0     0     0     0            PRN / # OF OBS
   G26  2627     0  2627     0  2625  2625     0            PRN / # OF OBS
   G27     0     0     0     0     0     0     0            PRN / # OF OBS
   G28     0     0     0     0     0     0     0            PRN / # OF OBS
   G29  2840     0  2840     0  2837  2837     0            PRN / # OF OBS
   G30  2467     0  2467     0  2467  2467     0            PRN / # OF OBS
   G31     0     0     0     0     0     0     0            PRN / # OF OBS
   G32     0     0     0     0     0     0     0            PRN / # OF OBS
                                                            END OF HEADER
  5  3 12 17 40 45.0000000  0  5G 2G 4G 5G10G30
  20353925.555   106960603.96759  20353924.810    83345920.08558
  22860784.580   120134243.30857  22860787.751    93611102.73057
  20538807.599   107932167.63259  20538809.193    84102993.47758
  21191529.282   111362242.26058  21191531.801    86775779.72458
  22051746.789   115882715.08458  22051749.574    90298228.86058
  5  3 12 17 40 50.0000000  0  5G 2G 4G 5G10G30
  20354876.646   106965601.98549  20354875.901    83349814.64648
  22863597.423   120149024.80247  22863600.640    93622620.72847
  20538711.565   107931662.94249  20538713.153    84102600.20948
  21189226.818   111350142.85648  21189229.355    86766351.62548
  22049488.001   115870845.16648  22049490.778    90288979.59548
  5  3 12 17 40 55.0000000  0  5G 2G 4G 5G10G30
  20355799.468   106970451.44549  20355798.722    83353593.44248
  22866380.437   120163649.67247  22866383.669    93634016.73547
  20538588.498   107931016.18849  20538590.087    84102096.24248
  21186896.741   111337898.40648  21186899.303    86756810.51248
  22047201.375   115858828.83648  22047204.166    90279616.20648
  5  3 12 17 41  0.0000000  0  5G 2G 4G 5G10G30
  20356723.756   106975308.58349  20356723.005    83357378.22548
  22869163.355   120178274.03847  22869166.613    93645412.33347
  20538468.132   107930383.63049  20538469.736    84101603.33148
  21184568.835   111325665.20748  21184571.403    86747278.15348
  22044916.622   115846822.37448  22044919.419    90270260.51748
  5  3 12 17 41  5.0000000  0  5G 2G 4G 5G10G30
  20357649.893   106980175.46649  20357649.135    83361170.60649
  22871946.592   120192900.07547  22871949.864    93656809.24947
  20538350.851   107929767.31349  20538352.463    84101123.08748
  21182243.475   111313445.32748  21182246.038    86737756.17248
  22042634.130   115834827.80148  22042636.929    90260914.10448
  5  3 12 17 41 10.0000000  0  5G 2G 4G 5G10G30
  20358607.514   106985207.82549  20358606.754    83365091.92748
  22874759.803   120207683.41447  22874763.079    93668328.70947
  20538266.305   107929322.98849  20538267.918    84100776.85849
  21179950.288   111301394.54948  21179952.853    86728365.96048
  22040383.544   115823000.85948  22040386.353    90251698.31048
  5  3 12 17 41 15.0000000  0  5G 2G 4G 5G10G30
  20359567.612   106990253.14349  20359566.858    83369023.32949
  22877573.908   120222471.63547  22877577.186    93679852.00447
  20538185.470   107928898.13849  20538187.085    84100445.79948
  21177660.245   111289360.32348  21177662.803    86718988.65248
  22038135.847   115811189.09948  22038138.660    90242494.34848
  5  3 12 17 41 20.0000000  0  5G 2G 4G 5G10G30
  20360501.105   106995158.71549  20360500.343    83372845.85649
  22880359.897   120237112.04447  22880363.204    93691260.09747
  20538079.275   107928340.08049  20538080.891    84100010.95049
  21175344.302   111277189.96248  21175346.854    86709505.25948
  22035861.967   115799239.77748  22035864.781    90233183.19648
  5  3 12 17 41 25.0000000  0  5G 2G 4G 5G10G30
  20361408.209   106999925.58149  20361407.440    83376560.29949
  22883117.933   120251605.64947  22883121.274    93702553.80647
  20537947.966   107927649.88949  20537949.571    84099473.12549
  21173002.676   111264884.60248  21173005.216    86699916.67248
  22033562.132   115787154.06548  22033564.948    90223765.76348
  5  3 12 17 41 30.0000000  0  5G 2G 4G 5G10G30
  20362406.315   107005170.62849  20362405.539    83380647.34549
  22885965.408   120266569.26647  22885968.770    93714213.76647
  20537908.873   107927444.42349  20537910.472    84099313.02149
  21170752.741   111253061.11348  21170755.267    86690703.57348
  22031353.735   115775548.82848  22031356.560    90214722.71948
  5  3 12 17 41 35.0000000  0  5G 2G 4G 5G10G30
  20363290.428   107009816.64649  20363289.652    83384267.61248
  22888697.385   120280925.80547  22888700.729    93725400.68147
  20537757.045   107926646.52849  20537758.638    84098691.28649
  21168389.525   111240642.33148  21168392.060    86681026.60448
  22029031.772   115763346.86248  22029034.605    90205214.70248
  5  3 12 17 41 40.0000000  0  5G 2G 4G 5G10G30
  20364265.804   107014942.24749  20364265.013    83388261.58349
  22891519.108   120295753.87447  22891522.443    93736955.00247
  20537697.735   107926334.82249  20537699.329    84098448.39448
  21166118.282   111228706.89648  21166120.818    86671726.27748
  22026801.539   115751626.84448  22026804.375    90196082.22148
  5  3 12 17 41 45.0000000  0  5G 2G 4G 5G10G30
  20365215.318   107019931.94549  20365214.520    83392149.65549
  22894313.404   120310437.90347  22894316.728    93748397.10047
  20537613.806   107925893.77449  20537615.408    84098104.71948
  21163821.876   111216639.26348  21163824.412    86662322.94348
  22024545.866   115739773.20748  22024548.711    90186845.62448
  5  3 12 17 41 50.0000000  0  5G 2G 4G 5G10G30
  20366168.346   107024940.17649  20366167.554    83396052.17049
  22897109.680   120325132.34147  22897112.986    93759847.30848
  20537534.668   107925477.86749  20537536.269    84097780.63148
  21161529.725   111204593.93348  21161532.269    86652936.97048
  22022294.158   115727940.43348  22022297.018    90177625.28648
  5  3 12 17 41 55.0000000  0  5G 2G 4G 5G10G30
  20367124.971   107029967.27349  20367124.171    83399969.38949
  22899908.013   120339837.52147  22899911.321    93771305.86947
  20537460.378   107925087.43849  20537461.980    84097476.39648
  21159241.885   111192571.22048  21159244.423    86643568.62048
  22020046.512   115716128.90948  22020049.366    90168421.49548
  5  3 12 17 42  0.0000000  0  5G 2G 4G 5G10G30
  20368055.945   107034859.54249  20368055.140    83403781.54848
  22902679.115   120354399.76247  22902682.439    93782653.07247
  20537361.670   107924568.82249  20537363.285    84097072.28848
  21156929.092   111180417.47348  21156931.630    86634098.18248
  22017773.649   115704184.96648  22017776.502    90159114.52948
  5  3 12 17 42  5.0000000  0  5G 2G 4G 5G10G30
  20369049.213   107040079.20249  20369048.407    83407848.81349
  22905511.013   120369281.39447  22905514.358    93794249.11847
  20537326.540   107924384.20949  20537328.154    84096928.43148
  21154679.331   111168594.95948  21154681.875    86624885.84448
  22015563.545   115692570.78848  22015566.398    90150064.52148
  5  3 12 17 42 10.0000000  0  5G 2G 4G 5G10G30
  20370016.878   107045164.31549  20370016.065    83411811.24048
  22908315.716   120384020.32947  22908319.067    93805734.02547
  20537267.080   107924071.71548  20537268.701    84096684.92048
  21152404.711   111156641.78548  21152407.269    86615571.68248
  22013328.296   115680824.50748  22013331.148    90140911.58048
  5  3 12 17 42 15.0000000  0  5G 2G 4G 5G10G30
  20370958.972   107050115.02149  20370958.152    83415668.92848
  22911093.324   120398616.76147  22911096.677    93817107.87347
  20537183.308   107923631.45649  20537184.930    84096341.85949
  21150105.252   111144558.04648  21150107.812    86606155.79048
  22011067.929   115668946.29548  22011070.788    90131655.84448
  5  3 12 17 42 20.0000000  0  5G 2G 4G 5G10G30
  20371934.112   107055239.35249  20371933.286    83419661.90748
  22913902.447   120413378.67847  22913905.822    93828610.63347
  20537133.833   107923371.46349  20537135.454    84096139.26649
  21147839.561   111132651.78748  21147842.120    86596878.18848
  22008841.089   115657244.17248  22008843.947    90122537.30248
  5  3 12 17 42 25.0000000  0  5G 2G 4G 5G10G30
  20372883.672   107060229.35649  20372882.852    83423550.22248
  22916684.451   120427998.23647  22916687.839    93840002.50047
  20537060.071   107922983.84549  20537061.700    84095837.22248
  21145549.034   111120615.11348  21145551.592    86587498.98548
  22006589.152   115645410.19148  22006592.009    90113316.02348
  5  3 12 17 42 30.0000000  0  5G 2G 4G 5G10G30
  20373836.996   107065239.10749  20373836.182    83427453.91848
  22919468.673   120442629.39447  22919472.070    93851403.39447
  20536991.334   107922622.59548  20536992.956    84095555.72949
  21143263.039   111108602.09548  21143265.604    86578138.18648
  22004341.447   115633598.42348  22004344.304    90104112.04848
  5  3 12 17 42 35.0000000  0  5G 2G 4G 5G10G30
  20374823.372   107070422.51849  20374822.551    83431492.93548
  22922284.390   120457426.05247  22922287.807    93862933.24248
  20536956.910   107922441.69849  20536958.532    84095414.76849
  21141010.821   111096766.67548  21141013.386    86568915.79248
  22002127.272   115621962.82448  22002130.129    90095045.33948
  5  3 12 17 42 40.0000000  0  5G 2G 4G 5G10G30
  20375813.488   107075625.60949  20375812.660    83435547.29648
  22925102.318   120472234.26947  22925105.736    93874472.09747
  20536927.506   107922287.17749  20536929.127    84095294.35948
  21138763.114   111084954.89348  21138765.679    86559711.80648
  21999917.310   115610349.42448  21999920.159    90085995.94548
  5  3 12 17 42 45.0000000  0  5G 2G 4G 5G10G30
  20376778.034   107080694.33649  20376777.206    83439496.95149
  22927893.123   120486900.01747  22927896.535    93885899.95147
  20536873.815   107922004.96849  20536875.430    84095074.44648
  21136490.587   111073012.71548  21136493.151    86550406.21548
  21997682.287   115598604.27148  21997685.136    90076843.86748
  5  3 12 17 42 50.0000000  0  5G 2G 4G 5G10G30
  20377746.319   107085782.67449  20377745.490    83443461.88348
  22930686.126   120501577.35047  22930689.538    93897336.83447
  20536825.121   107921749.08049  20536826.736    84094875.05448
  21134222.551   111061094.13848  21134225.109    86541119.02448
  21995451.477   115586881.28548  21995454.319    90067709.07948
  5  3 12 17 42 55.0000000  0  5G 2G 4G 5G10G30
  20378747.626   107091044.51649  20378746.784    83447562.01548
  22933510.614   120516420.03747  22933514.026    93908902.54747
  20536810.730   107921673.42549  20536812.346    84094816.09648
  21131988.300   111049353.10048  21131990.865    86531970.16948
  21993254.168   115575334.41048  21993257.017    90058711.52448
  5  3 12 17 43  0.0000000  0  5G 2G 4G 5G10G30
  20379723.319   107096171.81749  20379722.478    83451557.31849
  22936307.950   120531120.10947  22936311.364    93920357.14747
  20536772.021   107921469.97248  20536773.636    84094657.55349
  21129729.213   111037481.57848  21129731.778    86522719.64748
  21991031.771   115563655.63548  21991034.627    90049611.17748
  5  3 12 17 43  5.0000000  0  5G 2G 4G 5G10G30
  20380673.404   107101164.51549  20380672.556    83455447.72749
  22939078.142   120545677.50347  22939081.570    93931700.55247
  20536708.972   107921138.65049  20536710.580    84094399.38349
  21127445.298   111025479.52548  21127447.871    86513367.40148
  21988784.260   115551844.88548  21988787.110    90040408.00148
  5  3 12 17 43 10.0000000  0  5G 2G 4G 5G10G30
  20381685.784   107106484.57849  20381684.929    83459593.22549
  22941909.066   120560554.07647  22941912.507    93943292.67347
  20536709.502   107921141.43549  20536711.109    84094401.54949
  21125224.454   111013808.91348  21125227.035    86504273.41848
  21986599.537   115540364.12148  21986602.388    90031461.96348
  5  3 12 17 43 15.0000000  0  5G 2G 4G 5G10G30
  20382643.231   107111515.99549  20382642.369    83463513.81548
  22944683.520   120575133.96147  22944686.968    93954653.62347
  20536656.390   107920862.32949  20536657.997    84094184.06549
  21122949.450   111001853.75048  21122952.033    86494957.72648
  21984360.396   115528597.35548  21984363.234    90022293.06248
  5  3 12 17 43 20.0000000  0  5G 2G 4G 5G10G30
  20383662.965   107116874.70249  20383662.089    83467689.42849
  22947518.709   120590032.98147  22947522.163    93966263.24547
  20536666.848   107920917.25649  20536668.454    84094226.85449
  21120737.519   110990230.00448  21120740.108    86485900.26448
  21982184.055   115517160.57348  21982186.892    90013381.27548
  5  3 12 17 43 25.0000000  0  5G 2G 4G 5G10G30
  20384627.763   107121944.72049  20384626.881    83471640.08948
  22950297.427   120604635.24347  22950300.895    93977641.62347
  20536623.647   107920690.26449  20536625.260    84094049.98048
  21118471.446   110978321.70948  21118474.043    86476621.07448
  21979953.290   115505437.82348  21979956.127    90004246.66448
  5  3 12 17 43 30.0000000  0  5G 2G 4G 5G10G30
  20385625.528   107127187.97849  20385624.639    83475725.74148
  22953107.593   120619402.63847  22953111.075    93989148.65647
  20536614.708   107920643.28949  20536616.321    84094013.37548
  21116239.129   110966590.83848  21116241.727    86467480.14648
  21977756.011   115493891.07748  21977758.855    89995249.20248
  5  3 12 17 43 35.0000000  0  5G 2G 4G 5G10G30
  20386597.645   107132296.45849  20386596.749    83479706.37048
  22955890.553   120634027.13147  22955894.036    94000544.35348
  20536581.418   107920468.31848  20536583.032    84093877.03149
  21113981.962   110954729.37248  21113984.559    86458237.45148
  21975533.603   115482212.24448  21975536.440    89986148.81848
  5  3 12 17 43 40.0000000  0  5G 2G 4G 5G10G30
  20387602.723   107137578.14849  20387601.814    83483821.97349
  22958704.934   120648816.74347  22958708.425    94012068.71148
  20536582.373   107920473.33549  20536583.986    84093880.93748
  21111758.547   110943045.31248  21111761.151    86449132.99848
  21973344.692   115470709.44148  21973347.522    89977185.59648
  5  3 12 17 43 45.0000000  0  5G 2G 4G 5G10G30
  20388611.462   107142879.04649  20388610.539    83487952.53648
  22961521.423   120663617.48847  22961524.908    94023601.76948
  20536588.295   107920504.42549  20536589.915    84093905.15548
  21109539.603   110931384.71548  21109542.208    86440046.82748
  21971159.966   115459228.62748  21971162.783    89968239.51648
  5  3 12 17 43 50.0000000  0  5G 2G 4G 5G10G30
  20389594.538   107148045.14249  20389593.607    83491978.06748
  22964310.723   120678275.29947  22964314.209    94035023.42848
  20536569.849   107920407.52449  20536571.469    84093829.65448
  21107295.818   110919593.57648  21107298.423    86430858.93548
  21968950.122   115447615.78848  21968952.933    89959190.54948
  5  3 12 17 43 55.0000000  0  5G 2G 4G 5G10G30
  20390610.562   107153384.41649  20390609.624    83496138.54748
  22967131.446   120693098.17547  22967134.933    94046573.69748
  20536585.672   107920490.64349  20536587.299    84093894.41249
  21105085.804   110907979.87448  21105088.417    86421809.29748
  21966773.767   115436178.96348  21966776.577    89950278.73648
  5  3 12 17 44  0.0000000  0  5G 2G 4G 5G10G30
  20391600.953   107158588.92649  20391600.016    83500194.00549
  22969924.956   120707778.22847  22969928.450    94058012.71148
  20536577.140   107920445.83848  20536578.774    84093859.50349
  21102850.953   110896235.68348  21102853.559    86412657.99248
  21964572.312   115424610.20848  21964575.102    89941264.12748
  5  3 12 17 44  5.0000000  0  5G 2G 4G 5G10G30
  20392595.003   107163812.69349  20392594.059    83504264.47649
  22972720.625   120722469.44247  22972724.120    94069460.39048
  20536573.581   107920427.10149  20536575.214    84093844.89649
  21100620.586   110884515.05748  21100623.193    86403525.04548
  21962375.060   115413063.57148  21962377.837    89932266.75648
  5  3 12 17 44 10.0000000  0  5G 2G 4G 5G10G30
  20393592.751   107169055.83249  20393591.800    83508350.02949
  22975518.419   120737171.88847  22975521.922    94080916.82448
  20536575.005   107920434.58448  20536576.638    84093850.72749
  21098394.717   110872818.06648  21098397.330    86394410.50848
  21960182.053   115401539.17848  21960184.823    89923286.70148
  5  3 12 17 44 15.0000000  0  5G 2G 4G 5G10G30
  20394594.162   107174318.28149  20394593.211    83512450.63949
  22978318.332   120751885.59347  22978321.828    94092382.06748
  20536581.408   107920468.23549  20536583.049    84093876.94549
  21096173.343   110861144.76148  21096175.956    86385314.44848
  21957993.272   115390036.99648  21957996.037    89914323.95448
  5  3 12 17 44 20.0000000  0  5G 2G 4G 5G10G30
  20395599.277   107179600.16449  20395598.320    83516566.39149
  22981120.431   120766610.62747  22981123.934    94103856.09648
  20536592.820   107920528.17048  20536594.461    84093923.64649
  21093956.505   110849495.20148  21093959.126    86376236.86948
  21955808.721   115378557.13048  21955811.478    89905378.61548
  5  3 12 17 44 25.0000000  0  5G 2G 4G 5G10G30
  20396608.104   107184901.52749  20396607.140    83520697.31249
  22983924.670   120781347.00247  22983928.174    94115338.99048
  20536609.236   107920614.43849  20536610.884    84093990.86549
  21091744.201   110837869.49548  21091746.822    86367177.88548
  21953628.440   115367099.65048  21953631.184    89896450.70748
  5  3 12 17 44 30.0000000  0  5G 2G 4G 5G10G30
  20397620.622   107190222.37549  20397619.651    83524843.43749
  22986731.093   120796094.76347  22986734.611    94126830.72848
  20536630.675   107920727.10349  20536632.324    84094078.65749
  21089536.445   110826267.68848  21089539.073    86358137.52248
  21951452.442   115355664.67148  21951455.180    89887540.33148
  5  3 12 17 44 35.0000000  0  5G 2G 4G 5G10G30
  20398607.576   107195408.85249  20398606.598    83528884.85049
  22989510.407   120810700.09347  22989513.927    94138211.49748
  20536627.862   107920712.29149  20536629.526    84094067.10649
  21087303.962   110814535.94448  21087306.590    86348995.90848
  21949251.438   115344098.31848  21949254.170    89878527.59448
  5  3 12 17 44 40.0000000  0  5G 2G 4G 5G10G30
  20399656.900   107200923.05549  20399655.922    83533181.62749
  22992350.543   120825625.04747  22992354.070    94149841.31548
  20536688.716   107921032.07749  20536690.380    84094316.29149
  21085134.693   110803136.36148  21085137.322    86340113.11948
  21947113.366   115332862.67048  21947116.090    89869772.54848
  5  3 12 17 44 45.0000000  0  5G 2G 4G 5G10G30
  20400651.385   107206149.08049  20400650.400    83537253.84849
  22995134.318   120840253.76047  22995137.848    94161240.29548
  20536696.061   107921070.61549  20536697.734    84094346.31149
  21082911.435   110791453.08848  21082914.057    86331009.28148
  21944921.018   115321341.83848  21944923.744    89860795.28948
  5  3 12 17 44 50.0000000  0  5G 2G 4G 5G10G30
  20401678.972   107211549.08348  20401677.987    83541461.64249
  22997949.628   120855048.28047  22997953.159    94172768.49347
  20536737.814   107921290.02549  20536739.487    84094517.28249
  21080722.138   110779948.25648  21080724.767    86322044.47448
  21942762.361   115309997.98848  21942765.087    89851955.91748
  5  3 12 17 44 55.0000000  0  5G 2G 4G 5G10G30
  20402681.089   107216815.21349  20402680.111    83545565.11349
  23000737.941   120869700.84247  23000741.487    94184186.04148
  20536755.414   107921382.48349  20536757.088    84094589.32448
  21078508.207   110768314.06648  21078510.830    86312978.89748
  21940578.794   115298523.32448  21940581.519    89843014.63348
  5  3 12 17 45  0.0000000  0  5G 2G 4G 5G10G30
  20403687.058   107222101.61649  20403686.073    83549684.39148
  23003528.533   120884365.53147  23003532.073    94195613.08548
  20536778.189   107921502.16949  20536779.871    84094682.58549
  21076299.013   110756704.67448  21076301.629    86303932.62048
  21938399.683   115287071.99048  21938402.415    89834091.50748
  5  3 12 17 45  5.0000000  0  5G 2G 4G 5G10G30
  20404696.910   107227408.42749  20404695.926    83553819.56648
  23006321.494   120899042.60647  23006325.034    94207049.76448
  20536806.179   107921649.22549  20536807.862    84094797.17349
  21074094.559   110745120.22248  21074097.175    86294905.78148
  21936225.035   115275644.16848  21936227.761    89825186.72348
  5  3 12 17 45 10.0000000  0  5G 2G 4G 5G10G30
  20405710.675   107232735.76749  20405709.685    83557970.74049
  23009116.835   120913732.06946  23009120.384    94218496.06648
  20536839.391   107921823.72249  20536841.073    84094933.13649
  21071894.882   110733560.83748  21071897.484    86285898.47748
  21934054.873   115264239.91948  21934057.598    89816300.30148
  5  3 12 17 45 15.0000000  0  5G 2G 4G 5G10G30
  20406757.699   107238237.91349  20406756.708    83562258.12749
  23011943.887   120928588.26747  23011947.452    94230072.31248
  20536907.193   107922179.99549  20536908.877    84095210.75049
  21069729.335   110722180.84448  21069731.944    86277030.95348
  21931918.578   115253013.61348  21931921.310    89807552.52848
  5  3 12 17 45 20.0000000  0  5G 2G 4G 5G10G30
  20407808.739   107243761.10549  20407807.743    83566561.90649
  23014773.378   120943457.37147  23014776.943    94241658.63648
  20536980.313   107922564.27549  20536981.997    84095510.19449
  21067568.662   110710826.49148  21067571.264    86268183.42348
  21929786.894   115241811.53948  21929789.620    89798823.64148
  5  3 12 17 45 25.0000000  0  5G 2G 4G 5G10G30
  20408805.200   107248997.53948  20408804.210    83570642.24149
  23017546.776   120958031.61647  23017550.356    94253015.17748
  20537000.207   107922668.75848  20537001.892    84095591.60049
  21065354.310   110699189.99648  21065356.906    86259116.02948
  21927601.221   115230325.78348  21927603.947    89789873.70948
  5  3 12 17 45 30.0000000  0  5G 2G 4G 5G10G30
  20409835.056   107254409.46849  20409834.066    83574859.32949
  23020352.026   120972773.27347  23020355.613    94264502.17248
  20537054.818   107922955.73749  20537056.495    84095815.22149
  21063174.238   110687733.63748  21063176.828    86250189.00348
  21925449.565   115219018.75348  21925452.284    89781063.04048
  5  3 12 17 45 35.0000000  0  5G 2G 4G 5G10G30
  20410869.041   107259843.06949  20410868.051    83579093.29649
  23023159.865   120987528.50447  23023163.467    94275999.73848
  20537114.890   107923271.39049  20537116.568    84096061.18149
  21060999.173   110676303.59448  21061001.757    86241282.48248
  21923302.644   115207736.60548  21923305.369    89772271.75148
  5  3 12 17 45 40.0000000  0  5G 2G 4G 5G10G30
  20411907.197   107265298.58448  20411906.208    83583344.34249
  23025970.323   121002297.52847  23025973.919    94287508.07048
  20537180.469   107923615.97548  20537182.146    84096329.68049
  21058829.172   110664900.16548  21058831.757    86232396.69449
  21921160.487   115196479.55948  21921163.205    89763500.04148
  5  3 12 17 45 45.0000000  0  5G 2G 4G 5G10G30
  20412920.259   107270622.29349  20412919.270    83587492.69249
  23028754.200   121016926.71147  23028757.805    94298907.39848
  20537222.293   107923835.76549  20537223.979    84096500.94549
  21056634.972   110653369.62448  21056637.563    86223411.86948
  21918993.895   115185093.97948  21918996.615    89754628.15348
  5  3 12 17 45 50.0000000  0  5G 2G 4G 5G10G30
  20413966.896   107276122.34048  20413965.906    83591778.43049
  23031570.067   121031724.16147  23031573.666    94310437.88148
  20537299.014   107924238.93549  20537300.698    84096815.10049
  21054475.239   110642020.15148  21054477.831    86214568.12748
  21916861.458   115173888.01048  21916864.170    89745896.24248
  5  3 12 17 45 55.0000000  0  5G 2G 4G 5G10G30
  20415017.843   107281645.13548  20415016.853    83596081.91349
  23034388.709   121046536.22647  23034392.310    94321979.75648
  20537381.400   107924671.84348  20537383.085    84097152.42749
  21052320.730   110630698.16448  21052323.315    86205745.81048
  21914733.979   115162707.99847  21914736.684    89737184.54348
  5  3 12 17 46  0.0000000  0  5G 2G 4G 5G10G30
  20416043.875   107287036.93949  20416042.885    83600283.31449
  23037180.925   121061209.26347  23037184.527    94333413.26148
  20537440.200   107924980.80748  20537441.879    84097393.17849
  21050142.201   110619249.91548  21050144.787    86196825.10049
  21912582.210   115151400.31848  21912584.909    89728373.35348
  5  3 12 17 46  5.0000000  0  5G 2G 4G 5G10G30
  20417074.322   107292451.97648  20417073.332    83604502.82149
  23039975.997   121075897.40447  23039979.602    94344858.56548
  20537504.757   107925320.08848  20537506.434    84097657.55449
  21047969.003   110607829.71548  21047971.590    86187926.25248
  21910435.475   115140119.17947  21910438.174    89719582.86148
  5  3 12 17 46 10.0000000  0  5G 2G 4G 5G10G30
  20418167.882   107298198.64449  20418166.886    83608980.74049
  23042832.641   121090909.07647  23042836.248    94356555.95748
  20537633.780   107925998.04649  20537635.458    84098185.82449
  21045859.833   110596745.95148  21045862.414    86179289.56048
  21908352.476   115129172.94648  21908355.161    89711053.33548
  5  3 12 17 46 15.0000000  0  5G 2G 4G 5G10G30
  20419236.685   107303815.23748  20419235.688    83613357.30749
  23045662.996   121105782.62947  23045666.611    94368145.72548
  20537739.387   107926553.01848  20537741.073    84098618.26549
  21043726.811   110585536.90848  21043729.392    86170555.25648
  21906245.376   115118100.02648  21906248.060    89702425.07948
  5  3 12 17 46 20.0000000  0  5G 2G 4G 5G10G30
  20420280.790   107309302.04748  20420279.793    83617632.74149
  23048467.100   121120518.29347  23048470.728    94379628.05348
  20537821.643   107926985.27649  20537823.321    84098955.09149
  21041570.030   110574202.91648  21041572.606    86161723.57748
  21904114.202   115106900.72948  21904116.886    89693698.37048
  5  3 12 17 46 25.0000000  0  5G 2G 4G 5G10G30
  20421300.256   107314659.34649  20421299.266    83621807.25049
  23051245.026   121135116.33447  23051248.649    94391003.14548
  20537880.608   107927295.10549  20537882.293    84099196.50749
  21039389.518   110562744.24948  21039392.095    86152794.74848
  21901959.046   115095575.27248  21901961.730    89684873.33648
  5  3 12 17 46 30.0000000  0  5G 2G 4G 5G10G30
  20422324.460   107320041.54249  20422323.470    83626001.16549
  23054026.154   121149731.10447  23054029.785    94402391.24548
  20537945.641   107927636.88849  20537947.326    84099462.83749
  21037214.669   110551315.33748  21037217.239    86143889.10848
  21899809.274   115084278.11348  21899811.957    89676070.34548
  5  3 12 17 46 35.0000000  0  5G 2G 4G 5G10G30
  20423382.757   107325602.96349  20423381.767    83630334.74649
  23056839.820   121164517.08047  23056843.445    94413912.80648
  20538046.145   107928165.00849  20538047.830    84099874.35449
  21035074.858   110540070.55648  21035077.423    86135126.95048
  21897694.240   115073163.56948  21897696.918    89667409.67348
  5  3 12 17 46 40.0000000  0  5G 2G 4G 5G10G30
  20424445.939   107331189.99049  20424444.949    83634688.26849
  23059656.859   121179320.59447  23059660.491    94425447.98448
  20538152.866   107928725.79949  20538154.551    84100311.32749
  21032940.844   110528856.26748  21032943.409    86126388.55248
  21895584.729   115062078.07648  21895587.399    89658771.64248
  5  3 12 17 46 45.0000000  0  5G 2G 4G 5G10G30
  20425514.056   107336802.98349  20425513.067    83639062.03049
  23062477.286   121194141.94547  23062480.920    94436997.07248
  20538265.876   107929319.67049  20538267.554    84100774.08749
  21030812.711   110517672.85548  21030815.278    86117674.21048
  21893480.828   115051021.97048  21893483.499    89650156.49248
  5  3 12 17 46 50.0000000  0  5G 2G 4G 5G10G30
  20426587.203   107342442.37849  20426586.220    83643456.35249
  23065301.174   121208981.57347  23065304.813    94448560.41348
  20538385.268   107929947.02049  20538386.941    84101262.92449
  21028690.536   110506520.77948  21028693.096    86108984.29248
  21891382.616   115039995.79048  21891385.288    89641564.66648
  5  3 12 17 46 55.0000000  0  5G 2G 4G 5G10G30
  20427636.132   107347954.53949  20427635.150    83647751.54449
  23068099.330   121223685.92347  23068102.970    94460018.33647
  20538481.797   107930454.28549  20538483.470    84101658.19449
  21026545.095   110495246.44148  21026547.662    86100199.10148
  21889260.836   115028845.79348  21889263.501    89632876.36648
  5  3 12 17 47  0.0000000  0  5G 2G 4G 5G10G30
  20428690.247   107353493.95048  20428689.273    83652067.96949
  23070901.136   121238409.48046  23070904.783    94471491.22948
  20538584.875   107930995.93249  20538586.548    84102080.25049
  21024405.791   110484004.35648  21024408.359    86091439.04248
  21887144.921   115017726.58448  21887147.587    89624212.05148
  5  3 12 17 47  5.0000000  0  5G 2G 4G 5G10G30
  20429778.929   107359214.98149  20429777.955    83656525.90749
  23073735.958   121253306.50747  23073739.605    94483099.28948
  20538723.866   107931726.33549  20538725.539    84102649.39849
  21022302.006   110472948.92048  21022304.567    86082824.42748
  21885064.248   115006792.54248  21885066.921    89615692.01248
  5  3 12 17 47 10.0000000  0  5G 2G 4G 5G10G30
  20430814.324   107364655.98849  20430813.350    83660765.64849
  23076515.965   121267915.45247  23076519.614    94494482.86548
  20538810.941   107932183.88449  20538812.607    84103005.92549
  21020145.891   110461618.46348  21020148.453    86073995.50248
  21882930.957   114995582.05647  21882933.625    89606956.58448
  5  3 12 17 47 15.0000000  0  5G 2G 4G 5G10G30
  20431855.109   107370125.38249  20431854.142    83665027.51649
  23079299.826   121282544.64647  23079303.476    94505882.22248
  20538904.773   107932676.97449  20538906.440    84103390.15449
  21017996.133   110450321.44148  21017998.696    86065192.63748
  21880803.745   114984403.44847  21880806.413    89598245.97548
  5  3 12 17 47 20.0000000  0  5G 2G 4G 5G10G30
  20432960.013   107375931.65749  20432959.046    83669551.88149
  23082146.256   121297502.67147  23082149.914    94517537.81548
  20539064.081   107933514.11049  20539065.747    84104042.46249
  21015911.444   110439366.35448  21015914.007    86056656.21548
  21878741.296   114973565.26848  21878743.971    89589800.65148
  5  3 12 17 47 25.0000000  0  5G 2G 4G 5G10G30
  20433982.570   107381305.26349  20433981.609    83673739.10849
  23084908.791   121312019.92347  23084912.449    94528849.96848
  20539142.411   107933925.74149  20539144.078    84104363.21149
  21013745.381   110427983.64748  21013747.937    86047786.58448
  21876597.219   114962298.09648  21876599.894    89581021.04448
  5  3 12 17 47 30.0000000  0  5G 2G 4G 5G10G30
  20435069.414   107387016.63649  20435068.461    83678189.52049
  23087734.090   121326866.84247  23087737.755    94540418.96548
  20539286.385   107934682.32549  20539288.058    84104952.75649
  21011644.562   110416943.80348  21011647.113    86039184.12148
  21874518.115   114951372.30048  21874520.791    89572507.43348
  5  3 12 17 47 35.0000000  0  5G 2G 4G 5G10G30
  20436162.011   107392758.27348  20436161.058    83682663.52349
  23090563.587   121341735.95047  23090567.252    94552005.28548
  20539437.488   107935476.34649  20539439.161    84105571.46749
  21009550.481   110405939.33348  21009553.031    86030609.20848
  21872445.446   114940480.38648  21872448.123    89564020.23548
  5  3 12 17 47 40.0000000  0  5G 2G 4G 5G10G30
  20437231.141   107398376.58849  20437230.195    83687041.42849
  23093368.098   121356473.66547  23093371.758    94563489.20348
  20539566.487   107936154.24149  20539568.154    84106099.70049
  21007433.910   110394816.67748  21007436.467    86021942.20148
  21870350.011   114929468.76848  21870352.688    89555439.75048
  5  3 12 17 47 45.0000000  0  5G 2G 4G 5G10G30
  20438306.200   107404026.02849  20438305.253    83691443.58349
  23096176.973   121371234.36747  23096180.632    94574991.04348
  20539702.785   107936870.49349  20539704.459    84106657.81649
  21005324.236   110383730.32448  21005326.780    86013303.50848
  21868261.200   114918492.02348  21868263.870    89546886.45148
  5  3 12 17 47 50.0000000  0  5G 2G 4G 5G10G30
  20439357.971   107409553.12549  20439357.032    83695750.40749
  23098961.061   121385864.75447  23098964.721    94586391.32748
  20539817.179   107937471.60849  20539818.854    84107126.21449
  21003192.276   110372526.80048  21003194.820    86004573.49048
  21866149.815   114907396.59048  21866152.493    89538240.65348
  5  3 12 17 47 55.0000000  0  5G 2G 4G 5G10G30
  20440445.150   107415266.28948  20440444.211    83700202.22549
  23101779.009   121400673.10947  23101782.676    94597930.29048
  20539968.361   107938266.04148  20539970.029    84107745.25149
  21001096.722   110361514.59148  21001099.267    85995992.55148
  21864074.538   114896490.99548  21864077.209    89529742.80648
  5  3 12 17 48  0.0000000  0  5G 2G 4G 5G10G30
  20441509.218   107420858.00148  20441508.292    83704559.39649
  23104572.298   121415351.91247  23104575.959    94609368.31447
  20540097.797   107938946.23449  20540099.472    84108275.26649
  20998979.039   110350386.15548  20998981.584    85987321.05548
  21861976.872   114885467.68748  21861979.543    89521153.21248
  5  3 12 17 48  5.0000000  0  5G 2G 4G 5G10G30
  20442579.587   107426482.80149  20442578.662    83708942.35349
  23107370.368   121430055.74447  23107374.042    94620825.81147
  20540234.907   107939666.72049  20540236.583    84108836.68049
  20996868.649   110339296.01148  20996871.194    85978679.39348
  21859886.212   114874481.19848  21859888.884    89512592.31348
  5  3 12 17 48 10.0000000  0  5G 2G 4G 5G10G30
  20443656.327   107432141.07648  20443655.403    83713351.39449
  23110173.230   121444784.91447  23110176.905    94632303.09647
  20540379.763   107940427.94449  20540381.439    84109429.84449
  20994765.636   110328244.60348  20994768.174    85970067.91049
  21857802.640   114863531.95148  21857805.312    89504060.43448
  5  3 12 17 48 15.0000000  0  5G 2G 4G 5G10G30
  20444739.512   107437833.25048  20444738.587    83717786.85449
  23112981.040   121459539.93147  23112984.723    94643800.48447
  20540532.465   107941230.33548  20540534.142    84110055.07449
  20992670.078   110317232.40148  20992672.624    85961486.98048
  21855726.243   114852620.41148  21855728.908    89495557.93848
  5  3 12 17 48 20.0000000  0  5G 2G 4G 5G10G30
  20445858.551   107443713.84049  20445857.634    83722369.13249
  23115823.146   121474475.26847  23115826.829    94655438.40248
  20540722.385   107942228.37149  20540724.062    84110832.76449
  20990611.379   110306413.89548  20990613.918    85953056.98548
  21853686.421   114841901.07448  21853689.087    89487205.21348
  5  3 12 17 48 25.0000000  0  5G 2G 4G 5G10G30
  20446984.245   107449629.40348  20446983.335    83726978.65848
  23118670.358   121489437.46947  23118674.035    94667097.26648
  20540920.340   107943268.63248  20540922.010    84111643.36149
  20988560.349   110295635.69348  20988562.888    85944658.39449
  21851653.985   114831220.52248  21851656.652    89478882.70048
  5  3 12 17 48 30.0000000  0  5G 2G 4G 5G10G30
  20448058.093   107455272.48049  20448057.183    83731375.85649
  23121464.202   121504119.12347  23121467.885    94678537.49148
  20541067.839   107944043.71349  20541069.516    84112247.31149
  20986458.494   110284590.34148  20986461.035    85936051.62548
  21849570.418   114820271.33348  21849573.084    89470350.87048
  5  3 12 17 48 35.0000000  0  5G 2G 4G 5G10G30
  20449138.729   107460951.29148  20449137.819    83735800.90949
  23124263.321   121518828.50047  23124267.005    94689999.32448
  20541223.519   107944861.81848  20541225.198    84112884.80049
  20984364.448   110273586.08548  20984366.989    85927476.88748
  21847494.406   114809361.78248  21847497.065    89461849.92048
  5  3 12 17 48 40.0000000  0  5G 2G 4G 5G10G30
  20450226.214   107466666.03448  20450225.311    83740253.94649
  23127067.730   121533565.73947  23127071.421    94701482.87648
  20541387.435   107945723.16848  20541389.113    84113555.97549
  20982278.259   110262623.12148  20982280.793    85918934.32748
  21845425.956   114798492.07048  21845428.616    89453380.03048
  5  3 12 17 48 45.0000000  0  5G 2G 4G 5G10G30
  20451320.730   107472417.72348  20451319.828    83744735.77749
  23129877.634   121548331.78847  23129881.325    94712988.86947
  20541559.759   107946628.73749  20541561.438    84114261.61549
  20980200.125   110251702.47948  20980202.659    85910424.74548
  21843365.279   114787663.07748  21843367.940    89444941.84148
  5  3 12 17 48 50.0000000  0  5G 2G 4G 5G10G30
  20452451.615   107478360.56048  20452450.705    83749366.56049
  23132722.368   121563280.96447  23132726.058    94724637.57747
  20541769.854   107947732.76549  20541771.534    84115121.89249
  20978159.397   110240978.38448  20978161.932    85902068.30949
  21841341.716   114777029.20948  21841344.369    89436655.72048
  5  3 12 17 48 55.0000000  0  5G 2G 4G 5G10G30
  20453531.057   107484033.03949  20453530.148    83753786.66849
  23135514.138   121577951.75547  23135517.822    94736069.35147
  20541929.890   107948573.75949  20541931.570    84115777.21449
  20976068.258   110229989.37348  20976070.786    85893505.44949
  21839267.459   114766128.91548  21839270.120    89428161.98448
  5  3 12 17 49  0.0000000  0  5G 2G 4G 5G10G30
  20454647.053   107489897.60548  20454646.144    83758356.45449
  23138340.921   121592806.59747  23138344.611    94747644.54947
  20542127.882   107949614.18249  20542129.563    84116587.93049
  20974014.706   110219197.91948  20974017.235    85885096.53148
  21837230.512   114755424.68748  21837233.172    89419821.02548
  5  3 12 17 49  5.0000000  0  5G 2G 4G 5G10G30
  20455741.078   107495646.77649  20455740.175    83762836.33049
  23141144.210   121607537.94847  23141147.893    94759123.52148
  20542305.303   107950546.50549  20542306.984    84117314.40849
  20971940.234   110208296.49348  20971942.763    85876601.91749
  21835172.350   114744609.00748  21835175.011    89411393.22848
  5  3 12 17 49 10.0000000  0  5G 2G 4G 5G10G30
  20456842.535   107501434.97348  20456841.626    83767346.61649
  23143953.377   121622300.19047  23143957.067    94770626.55747
  20542491.544   107951525.20749  20542493.218    84118077.03849
  20969874.227   110197439.58448  20969876.750    85868142.00149
  21833122.385   114733836.33748  21833125.045    89402998.93148
  5  3 12 17 49 15.0000000  0  5G 2G 4G 5G10G30
  20457922.212   107507108.65048  20457921.303    83771767.65148
  23146739.234   121636939.87847  23146742.924    94782034.08348
  20542657.399   107952396.75249  20542659.074    84118756.16049
  20967787.479   110186473.68348  20967790.003    85859597.15048
  21831051.392   114722953.19648  21831054.047    89394518.56948
  5  3 12 17 49 20.0000000  0  5G 2G 4G 5G10G30
  20459038.784   107512976.27848  20459037.875    83776339.82949
  23149560.458   121651765.41447  23149564.162    94793586.42548
  20542861.563   107953469.61149  20542863.239    84119592.14849
  20965738.694   110175707.24548  20965741.219    85851207.72348
  21829018.067   114712268.03048  21829020.720    89386192.46848
  5  3 12 17 49 25.0000000  0  5G 2G 4G 5G10G30
  20460133.742   107518730.32049  20460132.834    83780823.50149
  23152358.512   121666469.31947  23152362.216    94805044.02048
  20543045.514   107954436.27649  20543047.190    84120345.39749
  20963669.354   110164832.78748  20963671.879    85842734.12149
  21826963.894   114701473.28148  21826966.541    89377780.98048
  5  3 12 17 49 30.0000000  0  5G 2G 4G 5G10G30
  20461236.477   107524525.23249  20461235.575    83785339.01249
  23155162.850   121681206.08647  23155166.553    94816527.18648
  20543238.635   107955451.13749  20543240.318    84121136.19449
  20961608.842   110154004.75848  20961611.367    85834296.70149
  21824918.275   114690723.51148  21824920.922    89369404.54448
  5  3 12 17 49 35.0000000  0  5G 2G 4G 5G10G30
  20462376.408   107530515.57448  20462375.499    83790006.80749
  23158002.807   121696130.16247  23158006.511    94828156.33847
  20543470.357   107956668.81149  20543472.040    84122085.02649
  20959586.585   110143377.72348  20959589.104    85826015.90148
  21822910.625   114680173.20448  21822913.264    89361183.51948
  5  3 12 17 49 40.0000000  0  5G 2G 4G 5G10G30
  20463524.298   107536547.74649  20463523.389    83794707.19549
  23160849.200   121711087.99947  23160852.912    94839811.77947
  20543711.433   107957935.67349  20543713.117    84123072.19749
  20957573.340   110132798.11048  20957575.866    85817772.06148
  21820911.711   114669668.90448  21820914.350    89352998.36448
  5  3 12 17 49 45.0000000  0  5G 2G 4G 5G10G30
  20464592.316   107542160.22048  20464591.415    83799080.55149
  23163614.193   121725618.07047  23163617.904    94851133.89947
  20543874.058   107958790.24549  20543875.743    84123738.09049
  20955481.316   110121804.45148  20955483.836    85809205.57848
  21818833.730   114658748.97648  21818836.370    89344489.31948
  5  3 12 17 49 50.0000000  0  5G 2G 4G 5G10G30
  20465756.393   107548277.45849  20465755.493    83803847.22449
  23166473.707   121740644.88547  23166477.424    94862843.09347
  20544134.140   107960156.98549  20544135.819    84124803.08749
  20953486.410   110111321.18348  20953488.930    85801036.80548
  21816852.579   114648337.99148  21816855.212    89336376.87248
  5  3 12 17 49 55.0000000  0  5G 2G 4G 5G10G30
  20466840.794   107553975.99049  20466839.894    83808287.63449
  23169251.998   121755244.93547  23169255.709    94874219.76847
  20544315.956   107961112.40049  20544317.640    84125547.55549
  20951412.912   110100424.87548  20951415.433    85792546.17948
  21814792.547   114637512.45148  21814795.181    89327941.38748
  5  3 12 17 50  0.0000000  0  5G 2G 4G 5G10G30
  20467962.841   107559872.38649  20467961.941    83812882.22849
  23172066.421   121770034.70347  23172070.146    94885744.23047
  20544536.837   107962273.10649  20544538.523    84126452.00049
  20949378.142   110089732.08748  20949380.663    85784214.13949
  21812770.965   114626888.96448  21812773.592    89319663.35048
  5  3 12 17 50  5.0000000  0  5G 2G 4G 5G10G30
  20469093.328   107565813.10349  20469092.427    83817511.35249
  23174887.745   121784860.76847  23174891.470    94897296.98647
  20544767.564   107963485.55549  20544769.250    84127396.75949
  20947352.888   110079089.33948  20947355.404    85775921.10249
  21810758.600   114616313.91548  21810761.227    89311423.05448
  5  3 12 17 50 10.0000000  0  5G 2G 4G 5G10G30
  20470203.020   107571644.57449  20470202.127    83822055.35349
  23177686.711   121799569.49847  23177690.437    94908758.34847
  20544978.905   107964596.19049  20544980.591    84128262.19449
  20945307.933   110068343.05648  20945310.448    85767547.38248
  21808726.253   114605633.88948  21808728.873    89303100.96448
  5  3 12 17 50 15.0000000  0  5G 2G 4G 5G10G30
  20471321.325   107577521.30949  20471320.432    83826634.62749
  23180492.790   121814315.44747  23180496.521    94920248.67148
  20545200.287   107965759.52849  20545201.974    84129168.68849
  20943272.691   110057647.79148  20943275.200    85759213.41148
  21806703.326   114595003.30448  21806705.947    89294817.38948
  5  3 12 17 50 20.0000000  0  5G 2G 4G 5G10G30
  20472448.303   107583443.61749  20472447.410    83831249.41149
  23183306.010   121829098.95847  23183309.742    94931768.27747
  20545431.753   107966975.86349  20545433.441    84130116.47849
  20941247.209   110047003.84248  20941249.719    85750919.43649
  21804689.877   114584422.59348  21804692.492    89286572.69048
  5  3 12 17 50 25.0000000  0  5G 2G 4G 5G10G30
  20473584.064   107589412.05249  20473583.172    83835900.13649
  23186126.460   121843920.51947  23186130.199    94943317.54448
  20545673.418   107968245.81949  20545675.112    84131106.04849
  20939231.612   110036411.83848  20939234.122    85742665.93449
  21802686.027   114573892.25948  21802688.642    89278367.22748
  5  3 12 17 50 30.0000000  0  5G 2G 4G 5G10G30
  20474699.390   107595273.12749  20474698.504    83840467.20348
  23188924.956   121858626.65147  23188928.701    94954776.85147
  20545896.070   107969415.86449  20545897.758    84132017.78049
  20937196.696   110025718.25148  20937199.199    85734333.26849
  21800662.566   114563258.86548  21800665.174    89270081.46648
  5  3 12 17 50 35.0000000  0  5G 2G 4G 5G10G30
  20475823.701   107601181.39349  20475822.815    83845071.04049
  23191730.890   121873371.96647  23191734.636    94966266.71447
  20546129.131   107970640.57748  20546130.826    84132972.09149
  20935171.852   110015077.65348  20935174.348    85726041.90348
  21798648.886   114552676.93748  21798651.495    89261835.81948
  5  3 12 17 50 40.0000000  0  5G 2G 4G 5G10G30
  20476986.395   107607291.38949  20476985.509    83849832.07549
  23194573.701   121888310.94647  23194577.447    94977907.45847
  20546401.999   107972074.50849  20546403.695    84134089.44149
  20933186.513   110004644.62548  20933189.010    85717912.27648
  21796674.422   114542301.05948  21796677.030    89253750.71648
  5  3 12 17 50 45.0000000  0  5G 2G 4G 5G10G30
  20478128.963   107613295.62649  20478128.077    83854510.70349
  23197394.835   121903136.07347  23197398.581    94989459.50047
  20546656.165   107973410.12549  20546657.860    84135130.17749
  20931182.147   109994111.64648  20931184.638    85709704.76848
  21794680.658   114531823.75848  21794683.261    89245586.59348
  5  3 12 17 50 50.0000000  0  5G 2G 4G 5G10G30
  20479251.513   107619194.63549  20479250.628    83859107.32749
  23200194.407   121917847.92447  23200198.154    95000923.28147
  20546891.728   107974648.02049  20546893.431    84136094.76649
  20929158.888   109983479.34448  20929161.379    85701419.86049
  21792667.691   114521245.61048  21792670.301    89237343.89048
  5  3 12 17 50 55.0000000  0  5G 2G 4G 5G10G30
  20480412.762   107625297.03649  20480411.876    83863862.44549
  23203031.184   121932755.16447  23203034.932    95012539.28847
  20547167.422   107976096.80149  20547169.124    84137223.68649
  20927175.438   109973056.27948  20927177.930    85693298.00049
  21790694.274   114510875.20348  21790696.884    89229263.04848
  5  3 12 17 51  0.0000000  0  5G 2G 4G 5G10G30
  20481524.896   107631141.31249  20481524.004    83868416.42449
  23205817.287   121947396.23447  23205821.035    95023947.91547
  20547395.426   107977294.93949  20547397.130    84138157.30049
  20925143.990   109962380.97848  20925146.474    85684979.59349
  21788672.554   114500251.05548  21788675.164    89220984.50648
  5  3 12 17 51  5.0000000  0  5G 2G 4G 5G10G30
  20482646.610   107637035.92449  20482645.718    83873009.62448
  23208611.445   121962079.56947  23208615.193    95035389.46047
  20547634.439   107978550.93049  20547636.143    84139135.98849
  20923123.253   109951761.93548  20923125.731    85676705.01948
  21786661.274   114489681.64448  21786663.878    89212748.59248
  5  3 12 17 51 10.0000000  0  5G 2G 4G 5G10G30
  20483807.275   107643135.29449  20483806.383    83877762.38249
  23211443.028   121976959.67047  23211446.776    95046984.35247
  20547913.838   107980019.18049  20547915.542    84140280.07949
  20921142.614   109941353.60748  20921145.094    85668594.63848
  21784689.805   114479321.47448  21784692.416    89204675.72348
  5  3 12 17 51 15.0000000  0  5G 2G 4G 5G10G30
  20484948.421   107649132.02549  20484947.529    83882435.15549
  23214253.574   121991729.06347  23214257.322    95058492.94347
  20548175.137   107981392.31449  20548176.848    84141350.05249
  20919143.570   109930848.59149  20919146.042    85660408.91949
  21782699.631   114468863.06648  21782702.233    89196526.32048
  5  3 12 17 51 20.0000000  0  5G 2G 4G 5G10G30
  20486128.743   107655334.66148  20486127.844    83887268.38049
  23217101.748   122006696.28747  23217105.489    95070155.70947
  20548477.057   107982978.88349  20548478.762    84142586.33949
  20917184.855   109920555.44249  20917187.328    85652388.28249
  21780749.485   114458615.04448  21780752.081    89188540.86748
  5  3 12 17 51 25.0000000  0  5G 2G 4G 5G10G30
  20487260.449   107661281.78449  20487259.551    83891902.49749
  23219899.752   122021399.90147  23219903.493    95081613.07147
  20548731.788   107984317.47549  20548733.494    84143629.39249
  20915178.639   109910012.76449  20915181.111    85644173.22248
  21778751.593   114448116.01748  21778754.189    89180359.80048
  5  3 12 17 51 30.0000000  0  5G 2G 4G 5G10G30
  20488431.530   107667435.85549  20488430.631    83896697.87649
  23222735.614   122036302.48347  23222739.347    95093225.48047
  20549027.329   107985870.55048  20549029.041    84144839.57649
  20913212.959   109899683.04748  20913215.425    85636124.09848
  21776793.923   114437828.39748  21776796.520    89172343.47248
  5  3 12 17 51 35.0000000  0  5G 2G 4G 5G10G30
  20489524.892   107673181.51049  20489524.000    83901175.00649
  23225492.261   122050788.60547  23225496.008    95104513.32647
  20549246.600   107987022.79749  20549248.313    84145737.43049
  20911170.711   109888950.96548  20911173.171    85627761.43849
  21774759.388   114427136.87048  21774761.977    89164012.42348
  5  3 12 17 51 40.0000000  0  5G 2G 4G 5G10G30
  20490687.185   107679289.36949  20490686.293    83905934.37249
  23228316.268   122065628.86547  23228320.009    95116077.17147
  20549536.228   107988544.80449  20549537.941    84146923.40849
  20909198.538   109878587.12349  20909200.991    85619685.72448
  21772794.671   114416812.12148  21772797.254    89155967.14748
  5  3 12 17 51 45.0000000  0  5G 2G 4G 5G10G30
  20491830.572   107685297.91249  20491829.681    83910616.35449
  23231119.840   122080361.76547  23231123.580    95127557.35647
  20549808.398   107989975.06549  20549810.118    84148037.89649
  20907208.608   109868130.00548  20907211.062    85611537.32649
  21770811.880   114406392.57648  21770814.463    89147848.04248
  5  3 12 17 51 50.0000000  0  5G 2G 4G 5G10G30
  20493013.778   107691515.66949  20493012.887    83915461.35348
  23233961.727   122095295.88747  23233965.460    95139194.31547
  20550121.826   107991622.11149  20550123.540    84149321.30749
  20905259.663   109857888.22749  20905262.117    85603556.72449
  21768869.793   114396186.84348  21768872.376    89139895.52348
  5  3 12 17 51 55.0000000  0  5G 2G 4G 5G10G30
  20494178.295   107697635.21549  20494177.404    83920229.82349
  23236783.391   122110123.77047  23236787.124    95150748.49547
  20550418.008   107993178.52749  20550419.730    84150534.09049
  20903293.187   109847554.35648  20903295.635    85595504.37049
  21766909.894   114385887.50048  21766912.477    89131870.06348
  5  3 12 17 52  0.0000000  0  5G 2G 4G 5G10G30
  20495353.535   107703811.14549  20495352.644    83925042.23749
  23239614.239   122124999.94847  23239617.971    95162340.31147
  20550726.353   107994798.88949  20550728.074    84151796.71049
  20901338.600   109837282.96548  20901341.048    85587500.69449
  21764961.587   114375649.11448  21764964.170    89123892.10548
  5  3 12 17 52  5.0000000  0  5G 2G 4G 5G10G30
  20496510.300   107709889.98249  20496509.402    83929778.99749
  23242425.054   122139770.97047  23242428.772    95173850.22647
  20551017.665   107996329.74449  20551019.393    84152989.58249
  20899366.708   109826920.60149  20899369.150    85579426.13249
  21762995.684   114365318.25348  21762998.259    89115842.09148
  5  3 12 17 52 10.0000000  0  5G 2G 4G 5G10G30
  20497648.699   107715872.27949  20497647.808    83934440.51649
  23245216.020   122154437.43847  23245219.752    95185278.60447
  20551292.049   107997771.67549  20551293.778    84154113.17349
  20897377.615   109816467.88048  20897380.057    85571281.15949
  21761012.307   114354895.53648  21761014.883    89107720.49748
  5  3 12 17 52 15.0000000  0  5G 2G 4G 5G10G30
  20498827.439   107722066.60049  20498826.548    83939267.26149
  23248045.775   122169307.84047  23248049.500    95196865.91747
  20551608.241   107999433.24349  20551609.977    84155407.89149
  20895430.055   109806233.35148  20895432.491    85563306.20348
  21759070.161   114344689.49048  21759072.738    89099767.73648
  5  3 12 17 52 20.0000000  0  5G 2G 4G 5G10G30
  20499988.029   107728165.50949  20499987.138    83944019.65349
  23250855.848   122184074.90447  23250859.573    95208372.73147
  20551907.723   108001006.99949  20551909.459    84156634.19049
  20893465.510   109795909.59949  20893467.947    85555261.72449
  21757110.740   114334392.72648  21757113.316    89091744.29348
  5  3 12 17 52 25.0000000  0  5G 2G 4G 5G10G30
  20501159.857   107734323.51049  20501158.968    83948818.09949
  23253675.649   122198892.96947  23253679.376    95219919.25647
  20552219.906   108002647.50049  20552221.650    84157912.49749
  20891513.389   109785651.16449  20891515.819    85547268.14949
  21755163.470   114324159.75548  21755166.054    89083770.55048
  5  3 12 17 52 30.0000000  0  5G 2G 4G 5G10G30
  20502313.722   107740387.07949  20502312.839    83953542.94749
  23256475.943   122213608.54947  23256479.669    95231385.92847
  20552515.564   108004201.19749  20552517.309    84159123.17149
  20889544.498   109775304.57148  20889546.921    85539205.87348
  21753199.127   114313837.09248  21753201.710    89075726.92048
  5  3 12 17 52 35.0000000  0  5G 2G 4G 5G10G30
  20503479.040   107746510.86849  20503478.159    83958314.73649
  23259286.161   122228376.37647  23259289.887    95242893.33147
  20552824.135   108005822.74549  20552825.886    84160386.70949
  20887588.253   109765024.46449  20887590.677    85531195.41049
  21751247.146   114303579.36548  21751249.724    89067733.89548
  5  3 12 17 52 40.0000000  0  5G 2G 4G 5G10G30
  20504655.910   107752695.29549  20504655.028    83963133.75749
  23262106.429   122243196.85747  23262110.156    95254441.73547
  20553145.700   108007512.58349  20553147.452    84161703.46949
  20885644.745   109754811.26149  20885647.169    85523237.07349
  21749307.612   114293387.04148  21749310.196    89059791.82148
  5  3 12 17 52 45.0000000  0  5G 2G 4G 5G10G30
  20505844.391   107758940.83949  20505843.517    83968000.41849
  23264936.747   122258070.34248  23264940.467    95266031.47947
  20553480.348   108009271.17049  20553482.100    84163073.79749
  20883714.052   109744665.46249  20883716.476    85515331.26848
  21747380.605   114283260.58648  21747383.183    89051901.08948
  5  3 12 17 52 50.0000000  0  5G 2G 4G 5G10G30
  20506986.044   107764940.23449  20506985.170    83972675.26649
  23267718.734   122272689.72247  23267722.448    95277423.19547
  20553769.621   108010791.27849  20553771.373    84164258.29149
  20881737.732   109734279.83249  20881740.156    85507238.57049
  21745407.676   114272892.80648  21745410.253    89043822.30148
  5  3 12 17 52 55.0000000  0  5G 2G 4G 5G10G30
  20508168.856   107771155.95348  20508167.989    83977518.68149
  23270540.339   122287517.35547  23270544.053    95288977.19847
  20554101.513   108012535.38049  20554103.271    84165617.32749
  20879803.783   109724116.86349  20879806.202    85499319.38049
  21743476.834   114262746.13048  21743479.418    89035915.79348
  5  3 12 17 53  0.0000000  0  5G 2G 4G 5G10G30
  20509363.639   107777434.54849  20509362.773    83982411.08949
  23273372.389   122302399.84548  23273376.097    95300573.94247
  20554446.813   108014349.97549  20554448.579    84167031.30449
  20877883.001   109714023.08648  20877885.413    85491454.10449
  21741558.866   114252667.17048  21741561.451    89028062.06748
  5  3 12 17 53  5.0000000  0  5G 2G 4G 5G10G30
  20510570.487   107783776.57549  20510569.627    83987352.92649
  23276215.005   122317337.76748  23276218.719    95312213.84947
  20554805.660   108016235.70149  20554807.427    84168500.69449
  20875975.501   109703999.10548  20875977.907    85483643.21549
  21739653.890   114242656.45648  21739656.468    89020261.51548
  5  3 12 17 53 10.0000000  0  5G 2G 4G 5G10G30
  20511730.894   107789874.52449  20511730.042    83992104.57049
  23279009.618   122332023.59348  23279013.333    95323657.35747
  20555119.520   108017885.04249  20555121.292    84169785.89149
  20874022.778   109693737.47648  20874025.184    85475647.14149
  21737703.384   114232406.56848  21737705.962    89012274.61248
  5  3 12 17 53 15.0000000  0  5G 2G 4G 5G10G30
  20512903.561   107796036.93248  20512902.710    83996906.44949
  23281814.991   122346765.86447  23281818.706    95335144.82947
  20555447.112   108019606.55049  20555448.891    84171127.32249
  20872083.525   109683546.69648  20872085.931    85467706.28749
  21735766.105   114222226.00748  21735768.692    89004341.68848
  5  3 12 17 53 20.0000000  0  5G 2G 4G 5G10G30
  20514088.587   107802264.25549  20514087.743    84001758.89749
  23284631.184   122361565.02448  23284634.891    95346676.63747
  20555788.525   108021400.65649  20555790.305    84172525.32449
  20870157.855   109673427.22949  20870160.254    85459820.99449
  21733842.080   114212115.24948  21733844.673    88996463.18648
  5  3 12 17 53 25.0000000  0  5G 2G 4G 5G10G30
  20515286.073   107808557.08949  20515285.231    84006662.40949
  23287458.320   122376421.63247  23287462.022    95358253.20147
  20556143.859   108023267.98249  20556145.640    84173980.39249
  20868245.879   109663379.69748  20868248.279    85451991.74449
  21731931.460   114202074.93348  21731934.046    88988639.58048
  5  3 12 17 53 30.0000000  0  5G 2G 4G 5G10G30
  20516466.825   107814761.94848  20516465.983    84011497.36049
  23290267.169   122391182.26747  23290270.872    95369755.00447
  20556483.925   108025055.04249  20556485.713    84175372.90249
  20866318.379   109653250.65148  20866320.781    85444098.99249
  21730005.051   114191951.55748  21730007.645    88980751.22748
  5  3 12 17 53 35.0000000  0  5G 2G 4G 5G10G30
  20517660.238   107821033.37649  20517659.404    84016384.18849
  23293087.178   122406001.45147  23293090.875    95381302.41347
  20556838.133   108026916.38549  20556839.927    84176823.28949
  20864404.785   109643194.64748  20864407.180    85436263.15049
  21728092.238   114181899.68848  21728094.825    88972918.61348
  5  3 12 17 53 40.0000000  0  5G 2G 4G 5G10G30
  20518837.126   107827217.93449  20518836.292    84021203.31949
  23295889.149   122420725.75247  23295892.847    95392775.86347
  20557177.275   108028698.59049  20557179.077    84178212.01949
  20862475.897   109633058.26948  20862478.293    85428364.67849
  21726163.827   114171765.88248  21726166.414    88965022.15348
  5  3 12 17 53 45.0000000  0  5G 2G 4G 5G10G30
  20520026.853   107833470.02249  20520026.026    84026075.08149
  23298702.420   122435509.58847  23298706.117    95404295.73547
  20557530.746   108030556.06249  20557532.542    84179659.39749
  20860561.092   109622995.93449  20860563.481    85420523.90749
  21724249.239   114161704.65448  21724251.826    88957182.23648
  5  3 12 17 53 50.0000000  0  5G 2G 4G 5G10G30
  20521229.544   107839790.14449  20521228.718    84030999.84149
  23301527.126   122450353.48947  23301530.809    95415862.40947
  20557898.629   108032489.29849  20557900.425    84181165.81749
  20858660.485   109613008.14549  20858662.875    85412741.21348
  21722348.542   114151716.42648  21722351.129    88949399.19948
  5  3 12 17 53 55.0000000  0  5G 2G 4G 5G10G30
  20522415.969   107846024.81649  20522415.144    84035858.02449
  23304334.039   122465103.88347  23304337.722    95427356.21747
  20558251.723   108034344.82249  20558253.527    84182611.68049
  20856744.851   109602941.45049  20856747.242    85404897.04449
  21720432.546   114141647.76448  21720435.133    88941553.48548
  5  3 12 17 54  0.0000000  0  5G 2G 4G 5G10G30
  20523615.538   107852328.56749  20523614.722    84040770.03249
  23307152.590   122479915.34447  23307156.267    95438897.59247
  20558619.438   108036277.17449  20558621.241    84184117.40749
  20854843.635   109592950.42849  20854846.019    85397111.82549
  21718530.636   114131653.25748  21718533.216    88933765.57948
  5  3 12 17 54  5.0000000  0  5G 2G 4G 5G10G30
  20524828.340   107858701.88149  20524827.530    84045736.24749
  23309982.817   122494788.31747  23309986.487    95450486.93447
  20559001.868   108038286.82949  20559003.679    84185683.36349
  20852956.882   109583035.54149  20852959.261    85389385.96049
  21716642.941   114121733.29048  21716645.523    88926035.72848
  5  3 12 17 54 10.0000000  0  5G 2G 4G 5G10G30
  20526025.169   107864991.23149  20526024.361    84050637.03849
  23312795.582   122509569.37347  23312799.252    95462004.61347
  20559369.789   108040220.26449  20559371.600    84187189.93949
  20851055.419   109573043.28249  20851057.799    85381599.78949
  21714740.238   114111734.48648  21714742.820    88918244.44448
  5  3 12 17 54 15.0000000  0  5G 2G 4G 5G10G30
  20527235.411   107871351.09648  20527234.603    84055592.77749
  23315620.205   122524412.92847  23315623.867    95473571.03247
  20559752.615   108042231.99649  20559754.426    84188757.51949
  20849168.632   109563128.15349  20849171.013    85373873.71849
  21712851.913   114101811.30448  21712854.502    88910512.10048
  5  3 12 17 54 20.0000000  0  5G 2G 4G 5G10G30
  20528429.873   107877628.03449  20528429.071    84060483.89549
  23318427.554   122539165.55347  23318431.224    95485066.56247
  20560121.121   108044168.54149  20560122.940    84190266.52049
  20847267.325   109553136.74548  20847269.706    85366088.21349
  21710948.783   114091810.28548  21710951.373    88902719.10448
  5  3 12 17 54 25.0000000  0  5G 2G 4G 5G10G30
  20529608.636   107883822.44549  20529607.835    84065310.70549
  23321217.646   122553827.62147  23321221.310    95496491.56147
  20560475.408   108046030.33449  20560477.234    84191717.26549
  20845351.584   109543069.46048  20845353.959    85358243.58249
  21709030.913   114081731.87448  21709033.497    88894865.81548
  5  3 12 17 54 30.0000000  0  5G 2G 4G 5G10G30
  20530859.715   107890396.91049  20530858.921    84070433.66349
  23324078.569   122568861.74647  23324082.226    95508206.44147
  20560903.503   108048279.95449  20560905.329    84193470.20849
  20843509.432   109533388.88448  20843511.807    85350700.27848
  21707186.342   114072038.58948  21707188.933    88887312.60348
  5  3 12 17 54 35.0000000  0  5G 2G 4G 5G10G30
  20532036.676   107896581.88049  20532035.889    84075253.11849
  23326863.832   122583498.33847  23326867.496    95519611.56347
  20561258.954   108050147.86549  20561260.788    84194925.72249
  20841594.429   109523325.51049  20841596.805    85342858.69749
  21705268.641   114061961.00348  21705271.233    88879459.94348
  5  3 12 17 54 40.0000000  0  5G 2G 4G 5G10G30
  20533256.836   107902993.83248  20533256.050    84080249.44349
  23329690.761   122598353.95047  23329694.418    95531187.36647
  20561659.090   108052250.59348  20561660.930    84196564.20749
  20839723.909   109513495.85948  20839726.279    85335199.23349
  21703395.126   114052115.61548  21703397.719    88871788.21748
  5  3 12 17 54 45.0000000  0  6G 2G 4G 5G 6G10G30
  20534461.658   107909325.21849  20534460.880    84085182.98949
  23332500.824   122613120.99747  23332504.475    95542694.17447
  20562045.373   108054280.52549  20562047.213    84198145.97349
  24279957.952   127592041.46356         0.000           0.00040
  20837839.336   109503592.36148  20837841.706    85327482.22549
  21701507.265   114042194.83948  21701509.859    88864057.74648
  5  3 12 17 54 50.0000000  0  6G 2G 4G 5G 6G10G30
  20535651.245   107915576.53849  20535650.467    84090054.14949
  23335294.169   122627799.96547  23335297.827    95554132.29647
  20562417.914   108056238.23849  20562419.754    84199671.46749
  24277432.588   127578770.36947  24277436.859    99412046.19857
  20835940.809   109493615.53448  20835943.173    85319708.08049
  21699605.159   114032199.20448  21699607.754    88856268.94348
  5  3 12 17 54 55.0000000  0  6G 2G 4G 5G 6G10G30
  20536854.999   107921902.27849  20536854.222    84094983.29249
  23338100.143   122642545.39347  23338103.807    95565622.22247
  20562806.107   108058278.17549  20562807.955    84201261.02049
  24274919.402   127565564.42147  24274923.975    99401755.85947
  20834057.727   109483719.87348  20834060.085    85311997.18149
  21697718.226   114022283.24048  21697720.821    88848542.20448
  5  3 12 17 55  0.0000000  0  6G 2G 4G 5G 6G10G30
  20538073.003   107928302.90049  20538072.234    84099970.78349
  23340918.823   122657357.65747  23340922.482    95577164.25547
  20563210.033   108060400.81949  20563211.881    84202915.02949
  24272418.835   127552424.13847  24272423.524    99391516.71047
  20832190.185   109473905.87348  20832192.543    85304349.90849
  21695846.530   114012447.41348  21695849.126    88840877.92648
  5  3 12 17 55  5.0000000  0  6G 2G 4G 5G 6G10G30
  20539276.032   107934624.85849  20539275.263    84104896.98749
  23343721.039   122672083.34147  23343724.698    95588638.80047
  20563600.486   108062452.63549  20563602.342    84204513.84049
  24269901.690   127539195.92046  24269906.333    99381208.98647
  20830308.966   109464020.03149  20830311.319    85296646.67149
  21693960.860   114002538.17848  21693963.449    88833156.45748
  5  3 12 17 55 10.0000000  0  6G 2G 4G 5G 6G10G30
  20540522.838   107941176.83949  20540522.077    84110002.42049
  23346565.478   122687030.97147  23346569.138    95600286.30547
  20564036.202   108064742.34049  20564038.059    84206298.02749
  24267426.533   127526188.47347  24267431.124    99371073.32347
  20828472.829   109454371.03348  20828475.182    85289127.96749
  21692119.959   113992864.24448  21692122.550    88825618.34548
  5  3 12 17 55 15.0000000  0  6G 2G 4G 5G 6G10G30
  20541754.858   107947651.14848  20541754.104    84115047.33249
  23349393.635   122701892.97447  23349397.296    95611867.07547
  20564458.633   108066962.22748  20564460.489    84208027.81049
  24264934.733   127513094.19446  24264939.350    99360870.02247
  20826623.198   109444651.22049  20826625.551    85281554.09849
  21690265.311   113983117.96748  21690267.908    88818023.83448
  5  3 12 17 55 20.0000000  0  6G 2G 4G 5G 6G10G30
  20542972.176   107954048.19649  20542971.430    84120032.04649
  23352205.568   122716669.71947  23352209.236    95623381.40647
  20564867.857   108069112.71649  20564869.721    84209703.51449
  24262426.493   127499913.39746  24262431.143    99350599.26847
  20824760.186   109434861.02948  20824762.533    85273925.38549
  21688396.969   113973299.73548  21688399.568    88810373.26248
  5  3 12 17 55 25.0000000  0  6G 2G 4G 5G 6G10G30
  20544174.901   107960368.53049  20544174.155    84124956.97649
  23355001.380   122731361.80947  23355005.048    95634829.79047
  20565263.976   108071194.33249  20565265.839    84211325.55349
  24259901.868   127486646.59446  24259906.540    99340261.50647
  20822883.879   109425000.96648  20822886.226    85266242.21949
  21686515.044   113963410.15448  21686517.643    88802667.09648
  5  3 12 17 55 30.0000000  0  6G 2G 4G 5G 6G10G30
  20545421.707   107966920.53849  20545420.969    84130062.43749
  23357839.768   122746277.57747  23357843.435    95646452.44947
  20565705.676   108073515.44949  20565707.540    84213134.21249
  24257419.587   127473602.27246  24257424.308    99330097.08747
  20821052.954   109415379.42448  20821055.295    85258744.92449
  21684678.211   113953757.56248  21684680.817    88795145.60148
  5  3 12 17 55 35.0000000  0  6G 2G 4G 5G 6G10G30
  20546654.092   107973396.73249  20546653.355    84135108.82149
  23360662.202   122761109.47247  23360665.869    95658009.75147
  20566134.439   108075768.61749  20566136.311    84214889.92549
  24254921.101   127460472.98646  24254925.844    99319866.51447
  20819208.923   109405688.97648  20819211.264    85251193.92749
  21682827.992   113944034.56348  21682830.599    88787569.23548
  5  3 12 17 55 40.0000000  0  6G 2G 4G 5G 6G10G30
  20547842.811   107979643.49449  20547842.081    84139976.42449
  23363439.442   122775704.03047  23363443.102    95669382.14847
  20566521.053   108077800.25449  20566522.932    84216473.01049
  24252377.216   127447105.03046  24252381.996    99309449.94347
  20817322.543   109395776.01048  20817324.877    85243469.54949
  21680935.118   113934087.50748  21680937.718    88779818.30048
  5  3 12 17 55 45.0000000  0  6G 2G 4G 5G 6G10G30
  20549075.886   107986123.31448  20549075.156    84145025.63149
  23366259.529   122790523.65347  23366263.183    95680929.90747
  20566953.509   108080072.82649  20566955.381    84218243.85049
  24249875.981   127433961.01146  24249880.747    99299207.87047
  20815481.836   109386103.06248  20815484.170    85235932.19649
  21679087.630   113924378.92348  21679090.238    88772253.17548
  5  3 12 17 55 50.0000000  0  6G 2G 4G 5G 6G10G30
  20550294.781   107992528.65348  20550294.052    84150016.80449
  23369063.941   122805260.87947  23369067.596    95692413.44947
  20567373.301   108082278.81749  20567375.188    84219962.79349
  24247358.836   127420733.35746  24247363.610    99288900.61647
  20813628.286   109376362.62048  20813630.627    85228342.24449
  21677227.015   113914601.32548  21677229.617    88764634.27348
  5  3 12 17 55 55.0000000  0  6G 2G 4G 5G 6G10G30
  20551558.208   107999168.00749  20551557.486    84155190.32349
  23371911.358   122820224.15547  23371915.000    95704073.15347
  20567839.112   108084726.70149  20567840.999    84221870.24449
  24244884.464   127407730.54146  24244889.226    99278768.58447
  20811820.593   109366863.16248  20811822.934    85220940.07749
  21675411.969   113905063.19148  21675414.577    88757201.95748
  5  3 12 17 56  0.0000000  0  6G 2G 4G 5G 6G10G30
  20552807.628   108005733.72249  20552806.907    84160306.46449
  23374743.269   122835105.79247  23374746.917    95715669.19447
  20568292.423   108087108.86949  20568294.310    84223726.47849
  24242394.347   127394644.95047  24242399.129    99268572.02247
  20810000.225   109357297.06648  20810002.559    85213485.97749
  21673583.952   113895456.89848  21673586.560    88749716.53748
  5  3 12 17 56  5.0000000  0  6G 2G 4G 5G 6G10G30
  20554043.132   108012226.34049  20554042.418    84165365.64449
  23377559.715   122849906.31647  23377563.357    95727202.07447
  20568733.334   108089425.83849  20568735.222    84225531.90649
  24239888.577   127381477.13247  24239893.360    99258311.40847
  20808167.271   109347664.88748  20808169.598    85205980.40148
  21671743.068   113885782.95648  21671745.684    88742178.39448
  5  3 12 17 56 10.0000000  0  6G 2G 4G 5G 6G10G30
  20555264.825   108018646.34749  20555264.119    84170368.24049
  23380360.830   122864626.27247  23380364.472    95738672.17247
  20569161.927   108091678.07749  20569163.822    84227286.89049
  24237367.277   127368227.61147  24237372.062    99247987.11547
  20806321.854   109337967.12748  20806324.182    85198423.70149
  21669889.397   113876041.88148  21669892.007    88734587.95748
  5  3 12 17 56 15.0000000  0  6G 2G 4G 5G 6G10G30
  20556502.073   108025148.09749  20556501.361    84175434.54149
  23383175.993   122879419.96347  23383179.636    95750199.70447
  20569607.575   108094019.97649  20569609.478    84229111.74349
  24234859.800   127355050.66747  24234864.572    99237719.36247
  20804493.323   109328358.16348  20804495.651    85190936.20348
  21668052.335   113866388.05448  21668054.945    88727065.49548
  5  3 12 17 56 20.0000000  0  6G 2G 4G 5G 6G10G30
  20557725.669   108031578.10449  20557724.964    84180444.92949
  23385975.986   122894133.95847  23385979.627    95761665.13947
  20570041.081   108096298.06449  20570042.984    84230886.88149
  24232336.933   127341792.88147  24232341.679    99227388.63247
  20802652.489   109318684.51448  20802654.811    85183398.30149
  21666202.671   113856668.03448  21666205.281    88719491.46448
  5  3 12 17 56 25.0000000  0  6G 2G 4G 5G 6G10G30
  20558994.262   108038244.66749  20558993.557    84185639.66649
  23388819.476   122909076.54047  23388823.119    95773308.70147
  20570521.119   108098820.64849  20570523.028    84232852.51949
  24229857.372   127328762.60647  24229862.090    99217235.15947
  20800858.027   109309254.55048  20800860.356    85176050.27649
  21664399.090   113847190.12148  21664401.701    88712106.07348
  5  3 12 17 56 30.0000000  0  6G 2G 4G 5G 6G10G30
  20560220.064   108044686.27149  20560219.367    84190659.09149
  23391618.632   122923786.20547  23391622.275    95784770.77447
  20570959.850   108101126.22649  20570961.760    84234649.08149
  24227333.256   127315498.25747  24227337.942    99206899.32047
  20799022.094   109299606.72348  20799024.423    85168532.50348
  21662553.757   113837492.80248  21662556.369    88704549.71448
  5  3 12 17 56 35.0000000  0  6G 2G 4G 5G 6G10G30
  20561461.762   108051211.40549  20561461.065    84195743.60849
  23394432.192   122938571.49947  23394435.828    95796291.77547
  20571415.999   108103523.30649  20571417.916    84236516.93449
  24224823.309   127302308.39746  24224827.974    99196621.51747
  20797203.424   109290049.54948  20797205.747    85161085.35849
  21660725.376   113827884.65748  21660727.995    88697062.85948
  5  3 12 17 56 40.0000000  0  6G 2G 4G 5G 6G10G30
  20562719.434   108057820.51749  20562718.738    84200893.56549
  23397260.216   122953432.80447  23397263.853    95807872.00147
  20571889.638   108106012.29549  20571891.555    84238456.40649
  24222327.632   127289193.43247  24222332.277    99186402.05247
  20795402.085   109280583.47848  20795404.401    85153709.20849
  21658914.064   113818366.11848  21658916.676    88689645.81348
  5  3 12 17 56 45.0000000  0  6G 2G 4G 5G 6G10G30
  20563993.176   108064514.04449  20563992.487    84206109.29249
  23400102.784   122968370.53847  23400106.429    95819511.78047
  20572380.855   108108593.62949  20572382.774    84240467.83549
  24219846.283   127276153.76146  24219850.904    99176241.27747
  20793618.177   109271208.97948  20793620.494    85146404.40949
  21657119.863   113808937.55948  21657122.475    88682298.89248
  5  3 12 17 56 50.0000000  0  6G 2G 4G 5G 6G10G30
  20565224.427   108070984.31549  20565223.732    84211151.06848
  23402901.329   122983077.02247  23402904.973    95830971.38247
  20572831.104   108110959.67049  20572833.029    84242311.49149
  24217320.744   127262881.80947  24217325.361    99165899.47547
  20791793.151   109261618.40048  20791795.467    85138931.22949
  21655284.253   113799291.36148  21655286.872    88674782.37348
  5  3 12 17 56 55.0000000  0  6G 2G 4G 5G 6G10G30
  20566501.234   108077693.94949  20566500.539    84216379.34849
  23405743.927   122998014.91047  23405747.578    95842611.27947
  20573328.398   108113573.00049  20573330.323    84244347.86049
  24214838.992   127249840.20447  24214843.582    99155737.22647
  20790015.030   109252274.34548  20790017.340    85131650.15848
  21653495.257   113789890.15448  21653497.870    88667456.76848
  5  3 12 17 57  0.0000000  0  6G 2G 4G 5G 6G10G30
  20567706.402   108084027.15149  20567705.715    84221314.31049
  23408513.368   123012568.32547  23408517.020    95853951.58747
  20573755.593   108115817.89349  20573757.526    84246097.12349
  24212283.889   127236413.14346  24212288.460    99145274.61647
  20788166.647   109242561.05948  20788168.957    85124081.37149
  21651635.722   113780118.20148  21651638.335    88659842.25548
  5  3 12 17 57  5.0000000  0  6G 2G 4G 5G 6G10G30
  20568986.596   108090754.58449  20568985.908    84226556.45649
  23411356.316   123027508.09047  23411359.968    95865592.95247
  20574259.329   108118465.01249  20574261.263    84248159.80849
  24209802.144   127223371.29946  24209806.704    99135112.11647
  20786394.675   109233249.28248  20786396.986    85116825.44449
  21649852.290   113770746.20748  21649854.911    88652539.39948
  5  3 12 17 57 10.0000000  0  6G 2G 4G 5G 6G10G30
  20570253.969   108097414.64249  20570253.281    84231746.10649
  23414184.959   123042372.55347  23414188.611    95877175.61747
  20574751.758   108121052.71349  20574753.700    84250176.19249
  24207305.835   127210253.10546  24207310.390    99124890.15847
  20784611.261   109223877.37648  20784613.565    85109522.66649
  21648057.117   113761312.53848  21648059.731    88645188.50048
  5  3 12 17 57 15.0000000  0  6G 2G 4G 5G 6G10G30
  20571479.306   108103853.83049  20571478.626    84236763.65649
  23416970.017   123057008.16147  23416973.669    95888579.99447
  20575203.668   108123427.51949  20575205.610    84252026.69149
  24204765.793   127196905.03146  24204770.350    99114489.05447
  20782787.194   109214291.84148  20782789.499    85102053.41849
  21646221.014   113751663.71948  21646223.627    88637669.93048
  5  3 12 17 57 20.0000000  0  6G 2G 4G 5G 6G10G30
  20572721.310   108110380.60549  20572720.624    84241849.46149
  23419770.236   123071723.37947  23419773.881    95900046.39547
  20575673.765   108125897.89249  20575675.707    84253951.65749
  24202240.686   127183635.53646  24202245.239    99104149.20847
  20780981.176   109204801.18248  20780983.474    85094658.11049
  21644402.651   113742108.21848  21644405.265    88630224.10348
  5  3 12 17 57 25.0000000  0  6G 2G 4G 5G 6G10G30
  20574009.361   108117149.35849  20574008.682    84247123.81149
  23422615.005   123086672.68247  23422618.658    95911695.18747
  20576191.443   108128618.27949  20576193.393    84256071.43149
  24199759.934   127170599.06346  24199764.482    99093990.92347
  20779222.595   109195559.78048  20779224.894    85087457.01949
  21642631.454   113732800.51848  21642634.061    88622971.35048
  5  3 12 17 57 30.0000000  0  6G 2G 4G 5G 6G10G30
  20575255.635   108123698.54649  20575254.956    84252227.06649
  23425416.468   123101394.46747  23425420.120    95923166.70647
  20576668.861   108131127.13049  20576670.811    84258026.38149
  24197235.694   127157334.06446  24197240.237    99083654.56447
  20777423.620   109186106.16448  20777425.918    85080090.57849
  21640819.576   113723279.00548  21640822.184    88615551.98748
  5  3 12 17 57 35.0000000  0  6G 2G 4G 5G 6G10G30
  20576548.144   108130490.69548  20576547.467    84257519.65149
  23428262.662   123116351.25547  23428266.308    95934821.34047
  20577194.033   108133886.92649  20577195.991    84260176.87349
  24194755.966   127144303.06946  24194760.524    99073500.55247
  20775672.282   109176902.82148  20775674.580    85072919.14249
  21639055.030   113714006.22248  21639057.639    88608326.43748
  5  3 12 17 57 40.0000000  0  6G 2G 4G 5G 6G10G30
  20577769.738   108136910.21049  20577769.060    84262521.87049
  23431036.426   123130927.45147  23431040.072    95946179.40747
  20577649.820   108136282.10049  20577651.784    84262043.23949
  24192203.626   127130890.52246  24192208.190    99063049.23447
  20773851.427   109167334.19148  20773853.718    85065463.07849
  21637220.674   113704366.61248  21637223.275    88600815.05748
  5  3 12 17 57 45.0000000  0  6G 2G 4G 5G 6G10G30
  20579037.726   108143573.47049  20579037.049    84267714.00949
  23433855.068   123145739.42247  23433858.707    95957721.18447
  20578153.514   108138929.02949  20578155.478    84264105.78049
  24189695.971   127117712.80346  24189700.534    99052780.89747
  20772078.366   109158016.69548  20772080.658    85058202.69549
  21635433.804   113694976.58148  21635436.405    88593498.15248
  5  3 12 17 57 50.0000000  0  6G 2G 4G 5G 6G10G30
  20580322.848   108150326.86349  20580322.185    84272976.39549
  23436689.355   123160633.60947  23436693.001    95969327.02147
  20578675.887   108141674.11949  20578677.852    84266244.81449
  24187203.780   127104616.28246  24187208.329    99042575.82647
  20770323.855   109148796.70648  20770326.140    85051018.29748
  21633665.205   113685682.52948  21633667.800    88586256.04148
  5  3 12 17 57 55.0000000  0  6G 2G 4G 5G 6G10G30
  20581566.603   108156862.84049  20581565.940    84278069.36549
  23439480.745   123175302.46047  23439484.377    95980757.30247
  20579158.421   108144209.82349  20579160.394    84268220.68249
  24184668.538   127091293.39946  24184673.074    99032194.35147
  20768529.383   109139366.69448  20768531.668    85043670.23549
  21631856.340   113676176.91247  21631858.934    88578849.07048
  5  3 12 17 58  0.0000000  0  6G 2G 4G 5G 6G10G30
  20582857.001   108163643.86448  20582856.339    84283353.27049
  23442317.266   123190208.41747  23442320.892    95992372.32447
  20579689.120   108146998.66249  20579691.092    84270393.80249
  24182178.220   127078206.72246  24182182.763    99021996.94447
  20766782.958   109130189.19948  20766785.243    85036518.94849
  21630095.230   113666922.21747  21630097.824    88571637.61948
  5  3 12 17 58  5.0000000  0  6G 2G 4G 5G 6G10G30
  20584135.483   108170362.36749  20584134.829    84288588.47449
  23445140.390   123205043.90747  23445144.015    96003932.41747
  20580209.452   108149732.99649  20580211.425    84272524.44649
  24179674.305   127065048.62146  24179678.836    99011743.90647
  20765026.045   109120956.56048  20765028.331    85029324.68849
  21628323.348   113657610.94448  21628325.936    88564382.09448
  5  3 12 17 58 10.0000000  0  6G 2G 4G 5G 6G10G30
  20585372.840   108176864.69149  20585372.187    84293655.21649
  23447920.833   123219655.30047  23447924.451    96015317.93247
  20580690.178   108152259.19849  20580692.152    84274492.91249
  24177127.579   127051665.45646  24177132.120    99001315.46647
  20763229.414   109111515.22948  20763231.700    85021967.81549
  21626511.459   113648089.37548  21626514.047    88556962.68348
  5  3 12 17 58 15.0000000  0  6G 2G 4G 5G 6G10G30
  20586657.059   108183613.30449  20586656.406    84298913.87849
  23450746.679   123234505.06147  23450750.311    96026889.13747
  20581219.300   108155039.75149  20581221.275    84276659.58049
  24174626.009   127038519.68046  24174630.558    98991072.02047
  20761481.060   109102327.63348  20761483.346    85014808.66049
  21624747.555   113638820.05748  21624750.149    88549739.84648
  5  3 12 17 58 20.0000000  0  6G 2G 4G 5G 6G10G30
  20587958.940   108190454.67349  20587958.295    84304244.80248
  23453588.605   123249439.57947  23453592.224    96038526.45247
  20581767.600   108157921.08549  20581769.582    84278904.77449
  24172140.379   127025457.76046  24172144.936    98980893.93847
  20759751.791   109093240.26348  20759754.077    85007727.59449
  21623002.427   113629649.34848  21623005.021    88542593.84048
  5  3 12 17 58 25.0000000  0  6G 2G 4G 5G 6G10G30
  20589219.905   108197081.09249  20589219.268    84309408.24649
  23456388.156   123264151.22347  23456391.781    96049990.04547
  20582276.531   108160595.53649  20582278.513    84280988.76249
  24169612.195   127012172.06746  24169616.766    98970541.44246
  20757983.043   109083945.46048  20757985.322    85000484.90048
  21621217.541   113620269.70648  21621220.127    88535285.02948
  5  3 12 17 58 30.0000000  0  6G 2G 4G 5G 6G10G30
  20590498.654   108203800.96149  20590498.024    84314644.50749
  23459203.964   123278948.39447  23459207.583    96061520.31547
  20582804.776   108163371.48449  20582806.758    84283151.84049
  24167100.112   126998970.97946  24167104.690    98960254.88146
  20756233.508   109074751.62448  20756235.787    84993320.87849
  21619451.570   113610989.46748  21619454.150    88528053.67648
  5  3 12 17 58 35.0000000  0  6G 2G 4G 5G 6G10G30
  20591765.982   108210460.78449  20591765.353    84319833.97349
  23462006.854   123293677.55547  23462010.473    96072997.55647
  20583323.146   108166095.50849  20583325.136    84285274.44849
  24164574.935   126985701.08346  24164579.521    98949914.70546
  20754473.992   109065505.30248  20754476.271    84986115.95349
  21617675.318   113601655.22948  21617677.897    88520780.24948
  5  3 12 17 58 40.0000000  0  6G 2G 4G 5G 6G10G30
  20593051.249   108217214.90649  20593050.620    84325096.92749
  23464826.183   123308493.13947  23464829.803    96084542.14747
  20583860.984   108168921.89349  20583862.973    84287476.83149
  24162066.019   126972516.64446  24162070.613    98939641.11246
  20752733.851   109056360.83348  20752736.131    84978990.40048
  21615918.143   113592421.27748  21615920.715    88513584.97848
  5  3 12 17 58 45.0000000  0  6G 2G 4G 5G 6G10G30
  20594354.537   108224063.70149  20594353.916    84330433.64349
  23467662.009   123323395.50447  23467665.629    96096154.37847
  20584418.389   108171851.04849  20584420.386    84289759.28149
  24159573.442   126959418.06146  24159578.034    98929434.41846
  20751013.172   109047318.63248  20751015.451    84971944.53849
  21614180.160   113583288.05048  21614182.739    88506468.16148
  5  3 12 17 58 50.0000000  0  6G 2G 4G 5G 6G10G30
  20595646.619   108230853.66849  20595645.997    84335724.53249
  23470485.129   123338230.97646  23470488.756    96107714.45847
  20584966.138   108174729.45449  20584968.128    84292002.19549
  24157067.956   126946251.79946  24157072.533    98919175.03146
  20749282.734   109038225.15148  20749285.007    84964858.72049
  21612432.103   113574102.01148  21612434.682    88499310.22148
  5  3 12 17 58 55.0000000  0  6G 2G 4G 5G 6G10G30
  20596927.581   108237585.14049  20596926.967    84340969.82849
  23473295.613   123353000.10646  23473299.240    96119222.85747
  20585504.285   108177557.46949  20585506.282    84294205.84649
  24154549.698   126933018.29446  24154554.273    98908863.20746
  20747542.608   109029080.75948  20747544.888    84957733.22349
  21610674.084   113564863.56248  21610676.650    88492111.43848
  5  3 12 17 59  0.0000000  0  6G 2G 4G 5G 6G10G30
  20598226.798   108244412.50649  20598226.185    84346289.84649
  23476122.830   123367857.22946  23476126.450    96130799.84047
  20586062.240   108180489.50849  20586064.238    84296490.55049
  24152048.019   126919871.91846  24152052.598    98898619.26946
  20745822.186   109020039.88048  20745824.459    84950688.38649
  21608935.467   113555727.09948  21608938.040    88484992.12148
  5  3 12 17 59  5.0000000  0  6G 2G 4G 5G 6G10G30
  20599485.703   108251028.12649  20599485.097    84351444.88049
  23478908.264   123382494.72246  23478911.883    96142205.66147
  20586581.434   108183217.89449  20586583.432    84298616.56349
  24149504.361   126906505.02846  24149508.931    98888203.53246
  20744062.916   109010794.88648  20744065.189    84943484.50049
  21607157.729   113546384.99248  21607160.295    88477712.55448
  5  3 12 17 59 10.0000000  0  6G 2G 4G 5G 6G10G30
  20600763.016   108257740.42449  20600762.418    84356675.23349
  23481710.559   123397220.88147  23481714.184    96153680.58247
  20587120.570   108186051.04349  20587122.576    84300824.20649
  24146977.452   126893226.03446  24146982.027    98877856.25346
  20742323.487   109001654.18848  20742325.760    84936361.89148
  21605399.538   113537145.66548  21605402.104    88470513.08848
  5  3 12 17 59 15.0000000  0  6G 2G 4G 5G 6G10G30
  20602058.777   108264549.66248  20602058.172    84361981.13149
  23484529.819   123412036.16046  23484533.443    96165224.94547
  20587679.696   108188989.27049  20587681.710    84303113.73149
  24144467.318   126880035.28046  24144471.883    98867577.75546
  20740603.980   108992618.11648  20740606.253    84929320.79848
  21603660.970   113528009.43148  21603663.537    88463393.94548
  5  3 12 17 59 20.0000000  0  6G 2G 4G 5G 6G10G30
  20603343.752   108271302.25249  20603343.155    84367242.89049
  23487336.812   123426786.88546  23487340.443    96176718.98547
  20588229.598   108191878.98949  20588231.612    84305365.45749
  24141944.763   126866779.13546  24141949.319    98857248.27846
  20738875.155   108983533.11248  20738877.428    84922241.57949
  21601912.789   113518822.70848  21601915.356    88456235.46948
  5  3 12 17 59 25.0000000  0  6G 2G 4G 5G 6G10G30
  20604647.310   108278152.49649  20604646.720    84372580.73849
  23490160.852   123441627.34547  23490164.475    96188282.98947
  20588799.619   108194874.50449  20588801.633    84307699.63149
  24139439.087   126853611.93546  24139443.620    98846988.17246
  20737166.389   108974553.48848  20737168.663    84915244.47448
  21600184.360   113509739.78348  21600186.927    88449157.87148
  5  3 12 17 59 30.0000000  0  6G 2G 4G 5G 6G10G30
  20605998.832   108285254.75649  20605998.235    84378114.96649
  23493031.358   123456711.89547  23493034.994    96200037.15947
  20589419.156   108198130.16249  20589421.171    84310236.50249
  24136979.764   126840688.01746  24136984.284    98836917.57046
  20735507.044   108965833.60048  20735509.318    84908449.76148
  21598505.084   113500915.09948  21598507.653    88442281.49248
  5  3 12 17 59 35.0000000  0  6G 2G 4G 5G 6G10G30
  20607251.865   108291839.46049  20607251.276    84383245.89649
  23495801.885   123471271.05146  23495805.514    96211381.94447
  20589941.751   108200876.41549  20589943.765    84312376.43849
  24134420.294   126827237.81346  24134424.785    98826436.88147
  20733750.687   108956603.91348  20733752.961    84901257.80548
  21596728.483   113491579.02848  21596731.059    88435006.63548
  5  3 12 17 59 40.0000000  0  6G 2G 4G 5G 6G10G30
  20608582.283   108298830.88549  20608581.701    84388693.76349
  23498648.275   123486228.89947  23498651.904    96223037.40147
  20590543.299   108204037.53949  20590545.313    84314839.64849
  24131936.561   126814185.73946  24131941.031    98816266.44946
  20732073.206   108947788.72248  20732075.479    84894388.83149
  21595030.458   113482655.90948  21595033.034    88428053.57148
  5  3 12 17 59 45.0000000  0  6G 2G 4G 5G 6G10G30
  20609843.641   108305459.33449  20609843.052    84393858.78749
  23501424.108   123500815.93546  23501427.737    96234403.91447
  20591077.319   108206843.83549  20591079.341    84317026.37049
  24129382.088   126800761.92546  24129386.544    98805806.34646
  20730328.142   108938618.35048  20730330.416    84887243.08849
  21593264.579   113473376.09148  21593267.156    88420822.53348
  5  3 12 17 59 50.0000000  0  6G 2G 4G 5G 6G10G30
  20611153.216   108312341.19749  20611152.635    84399221.27749
  23504246.679   123515648.46047  23504250.316    96245961.68147
  20591661.122   108209911.74049  20591663.151    84319416.94449
  24126874.182   126787582.85546  24126878.636    98795536.94446
  20728632.783   108929709.20748  20728635.050    84880300.91149
  21591548.101   113464355.96748  21591550.677    88413793.87248
  5  3 12 17 59 55.0000000  0  6G 2G 4G 5G 6G10G30
  20612481.790   108319322.86849  20612481.209    84404661.53449
  23507086.688   123530572.90346  23507090.318    96257591.13947
  20592265.465   108213087.58349  20592267.494    84321891.62849
  24124383.598   126774494.87446  24124388.030    98785338.55047
  20726957.897   108920907.65548  20726960.165    84873442.56649
  21589851.805   113455441.90448  21589854.375    88406847.85948
  5  3 12 18  0  0.0000000  0  6G 2G 4G 5G 6G10G30
  20613770.804   108326096.65349  20613770.231    84409939.80349
  23509885.661   123545281.54347  23509889.298    96269052.40447
  20592831.801   108216063.69949  20592833.831    84324210.68149
  24121851.828   126761190.39546  24121856.260    98774971.43647
  20725244.946   108911906.03548  20725247.213    84866428.31749
  21588117.142   113446326.21948  21588119.719    88399744.73248
  5  3 12 18  0  5.0000000  0  6G 2G 4G 5G 6G10G30
  20615078.899   108332970.80249  20615078.326    84415296.29449
  23512702.249   123560082.68847  23512705.887    96280585.73747
  20593418.799   108219148.36649  20593420.830    84326614.31449
  24119337.541   126747977.69146  24119341.958    98764675.82246
  20723552.579   108903012.64848  20723554.839    84859498.42149
  21586402.791   113437317.24248  21586405.367    88392724.75048
  5  3 12 18  0 10.0000000  0  6G 2G 4G 5G 6G10G30
  20616406.187   108339945.68449  20616405.621    84420731.25549
  23515536.487   123574976.67747  23515540.117    96292191.43747
  20594026.518   108222341.91749  20594028.549    84329102.79149
  24116840.788   126734857.07246  24116845.213    98754451.94247
  20721880.886   108894227.84348  20721883.146    84852653.11949
  21584708.808   113428415.26948  21584711.385    88385788.14448
  5  3 12 18  0 15.0000000  0  6G 2G 4G 5G 6G10G30
  20617664.778   108346559.62749  20617664.213    84425884.97949
  23518300.550   123589501.86547  23518304.181    96303509.75247
  20594567.102   108225182.74049  20594569.141    84331316.42349
  24114273.694   126721366.90647  24114278.115    98743940.13847
  20720142.005   108885089.99648  20720144.266    84845532.72749
  21582947.344   113419158.74848  21582949.915    88378575.28248
  5  3 12 18  0 20.0000000  0  6G 2G 4G 5G 6G10G30
  20618971.975   108353428.93049  20618971.411    84431237.67249
  23521111.710   123604274.48346  23521115.347    96315020.85247
  20595157.845   108228287.08149  20595159.891    84333735.38549
  24111753.555   126708123.45446  24111757.971    98733620.56847
  20718453.225   108876215.39448  20718455.486    84838617.45549
  21581235.686   113410163.89148  21581238.264    88371566.29248
  5  3 12 18  0 25.0000000  0  6G 2G 4G 5G 6G10G30
  20620327.801   108360553.84349  20620327.237    84436789.55449
  23523969.988   123619294.83846  23523973.626    96326725.02747
  20595798.784   108231655.23649  20595800.830    84336359.92349
  24109280.420   126695127.04246  24109284.824    98723493.50847
  20716814.587   108867604.32548  20716816.856    84831907.53649
  21579573.874   113401431.07148  21579576.452    88364761.51448
  5  3 12 18  0 30.0000000  0  6G 2G 4G 5G 6G10G30
  20621644.413   108367472.65349  20621643.857    84442180.83049
  23526787.530   123634101.15247  23526791.161    96338262.42347
  20596402.068   108234825.48749  20596404.115    84338830.24149
  24106766.410   126681915.95346  24106770.802    98713199.19347
  20715138.237   108858795.04448  20715140.500    84825043.17049
  21577874.063   113392498.53948  21577876.641    88357801.10448
  5  3 12 18  0 35.0000000  0  6G 2G 4G 5G 6G10G30
  20622951.176   108374339.74249  20622950.621    84447531.80849
  23529593.748   123648847.89446  23529597.378    96349753.38347
  20596997.054   108237952.18849  20596999.100    84341266.63949
  24104240.934   126668644.48745  24104245.327    98702857.79746
  20713453.549   108849941.98448  20713455.812    84818144.68548
  21576165.640   113383520.71648  21576168.212    88350805.40248
  5  3 12 18  0 40.0000000  0  6G 2G 4G 5G 6G10G30
  20624248.147   108381155.37149  20624247.599    84452842.68749
  23532388.701   123663535.31347  23532392.337    96361198.08447
  20597583.825   108241035.66049  20597585.872    84343669.34049
  24101704.015   126655313.01745  24101708.416    98692469.66246
  20711760.585   108841045.39748  20711762.842    84811212.28749
  21574448.639   113374497.84648  21574451.210    88343774.60048
  5  3 12 18  0 45.0000000  0  6G 2G 4G 5G 6G10G30
  20625564.698   108388073.83149  20625564.151    84458233.68649
  23535201.735   123678317.75547  23535205.379    96372716.83347
  20598191.728   108244230.18149  20598193.776    84346158.57449
  24099185.063   126642075.89345  24099189.469    98682155.02746
  20710088.705   108832259.63848  20710090.968    84804366.24649
  21572752.444   113365584.25048  21572755.009    88336828.94048
  5  3 12 18  0 50.0000000  0  6G 2G 4G 5G 6G10G30
  20626900.872   108395095.47349  20626900.326    84463705.09549
  23538032.849   123693195.45146  23538036.485    96384309.86647
  20598820.824   108247536.13749  20598822.880    84348734.65049
  24096684.117   126628933.36545  24096688.536    98671914.09546
  20708437.992   108823585.08248  20708440.248    84797606.85549
  21571077.097   113356780.27048  21571079.661    88329968.70148
  5  3 12 18  0 55.0000000  0  6G 2G 4G 5G 6G10G30
  20628198.145   108401912.68549  20628197.606    84469017.21249
  23540823.576   123707860.85246  23540827.205    96395737.46047
  20599412.594   108250645.87749  20599414.657    84351157.81449
  24094142.628   126615577.90846  24094147.060    98661507.26846
  20706749.893   108814714.12849  20706752.157    84790694.43549
  21569364.081   113347778.34048  21569366.645    88322954.21948
  5  3 12 18  1  0.0000000  0  6G 2G 4G 5G 6G10G30
  20629573.800   108409141.80348  20629573.269    84474650.28749
  23543691.187   123722930.18447  23543694.829    96407479.77347
  20600084.300   108254175.71649  20600086.363    84353908.34049
  24091677.889   126602625.77446  24091682.335    98651414.72446
  20705141.718   108806263.11048  20705143.975    84784109.23049
  21567730.707   113339194.87248  21567733.271    88316265.79448
  5  3 12 18  1  5.0000000  0  6G 2G 4G 5G 6G10G30
  20630881.353   108416013.00949  20630880.822    84480004.46749
  23546489.210   123737633.77447  23546492.853    96418937.09247
  20600689.470   108257355.90649  20600691.533    84356386.40849
  24089143.433   126589307.21146  24089147.884    98641036.63546
  20703466.967   108797462.23348  20703469.225    84777251.40648
  21566030.442   113330259.95148  21566033.007    88309303.52748
  5  3 12 18  1 10.0000000  0  6G 2G 4G 5G 6G10G30
  20632179.474   108422834.64949  20632178.944    84485320.03149
  23549276.278   123752279.91147  23549279.920    96430349.66447
  20601286.765   108260494.71349  20601288.828    84358832.23249
  24086597.917   126575930.55746  24086602.373    98630613.28846
  20701784.302   108788619.80248  20701786.560    84770361.20649
  21564321.980   113321281.92248  21564324.544    88302307.65848
  5  3 12 18  1 15.0000000  0  6G 2G 4G 5G 6G10G30
  20633526.820   108429915.00149  20633526.290    84490837.18749
  23552111.071   123767176.88147  23552114.707    96441957.70447
  20601934.866   108263900.47549  20601936.930    84361486.07049
  24084100.028   126562804.09446  24084104.477    98620384.88446
  20700152.411   108780044.15748  20700154.670    84763678.88949
  21562663.988   113312569.17848  21562666.552    88295518.52148
  5  3 12 18  1 20.0000000  0  6G 2G 4G 5G 6G10G30
  20634864.833   108436946.27448  20634864.303    84496316.09749
  23554935.061   123782016.95847  23554938.697    96453521.38047
  20602575.187   108267265.41648  20602577.257    84364108.10349
  24081591.226   126549620.09746  24081595.682    98610111.59846
  20698512.713   108771427.54748  20698514.971    84756964.66049
  21560997.914   113303813.93148  21561000.471    88288696.26048
  5  3 12 18  1 25.0000000  0  6G 2G 4G 5G 6G10G30
  20636193.571   108443928.84049  20636193.050    84501757.05949
  23557748.281   123796800.46246  23557751.915    96465040.97647
  20603207.822   108270589.90149  20603209.892    84366698.60649
  24079071.480   126536378.92646  24079075.921    98599793.84746
  20696865.304   108762770.35748  20696867.563    84750218.79949
  21559323.829   113295016.55748  21559326.387    88281841.16448
  5  3 12 18  1 30.0000000  0  6G 2G 4G 5G 6G10G30
  20637513.100   108450862.97748  20637512.578    84507160.27549
  23560550.763   123811527.60547  23560554.390    96476516.67247
  20603832.800   108273874.18148  20603834.870    84369257.78549
  24076540.961   126523080.86446  24076545.392    98589431.69346
  20695210.220   108754072.82948  20695212.472    84743441.50849
  21557641.781   113286177.33748  21557644.339    88274953.46048
  5  3 12 18  1 35.0000000  0  6G 2G 4G 5G 6G10G30
  20638852.792   108457903.10648  20638852.277    84512646.08749
  23563371.925   123826352.84947  23563375.552    96488068.79747
  20604479.528   108277272.76148  20604481.605    84371906.02749
  24074028.991   126509880.40746  24074033.407    98579145.62746
  20693576.859   108745489.49148  20693579.111    84736753.19949
  21555981.162   113277450.75548  21555983.726    88268153.52848
  5  3 12 18  1 40.0000000  0  6G 2G 4G 5G 6G10G30
  20640183.402   108464895.54549  20640182.888    84518094.74949
  23566182.533   123841122.63347  23566186.166    96499577.69847
  20605118.756   108280631.92749  20605120.834    84374523.56149
  24071506.344   126496623.80746  24071510.744    98568815.80746
  20691935.970   108736866.59448  20691938.222    84730034.06749
  21554312.724   113268683.05248  21554315.281    88261321.55548
  5  3 12 18  1 45.0000000  0  6G 2G 4G 5G 6G10G30
  20641505.002   108471840.53749  20641504.495    84523506.41749
  23568982.586   123855837.07147  23568986.211    96511043.50747
  20605750.533   108283951.94049  20605752.611    84377110.58249
  24068973.040   126483311.29946  24068977.418    98558442.44746
  20690287.620   108728204.45248  20690289.865    84723284.35149
  21552636.527   113259874.57948  21552639.078    88254457.81448
  5  3 12 18  1 50.0000000  0  6G 2G 4G 5G 6G10G30
  20642846.915   108478892.33848  20642846.402    84529001.33349
  23571801.516   123870650.49147  23571805.147    96522586.39147
  20606404.210   108287387.03249  20606406.287    84379787.27949
  24066458.473   126470097.15846  24066462.850    98548145.71246
  20688661.154   108719657.31848  20688663.401    84716624.25249
  21550981.920   113251179.55948  21550984.477    88247682.46948
  5  3 12 18  1 55.0000000  0  6G 2G 4G 5G 6G10G30
  20644179.898   108485897.18049  20644179.393    84534459.64549
  23574609.962   123885409.13547  23574613.587    96534086.67147
  20607050.536   108290783.43749  20607052.614    84382433.81649
  24063933.394   126456827.71746  24063937.763    98537805.87346
  20687027.306   108711071.42048  20687029.553    84709933.94848
  21549319.652   113242444.31448  21549322.203    88240875.79748
  5  3 12 18  2  0.0000000  0  6G 2G 4G 5G 6G10G30
  20645533.335   108493009.53849  20645532.837    84540001.73949
  23577437.432   123900267.40347  23577441.057    96545664.50047
  20607718.877   108294295.62649  20607720.962    84385170.59049
  24061427.144   126443657.34746  24061431.513    98527543.26146
  20685415.490   108702601.27148  20685417.730    84703333.83449
  21547679.114   113233823.23048  21547681.659    88234158.07348
  5  3 12 18  2  5.0000000  0  6G 2G 4G 5G 6G10G30
  20646877.958   108500075.57949  20646877.459    84545507.74349
  23580254.554   123915071.50647  23580258.178    96557200.16947
  20608379.996   108297769.83049  20608382.074    84387877.76449
  24058910.470   126430432.26346  24058914.839    98517238.02746
  20683796.432   108694093.09548  20683798.672    84696704.09449
  21546031.031   113225162.52748  21546033.575    88227409.47948
  5  3 12 18  2 10.0000000  0  6G 2G 4G 5G 6G10G30
  20648213.889   108507095.88349  20648213.392    84550978.10049
  23583061.502   123929821.99547  23583065.126    96568694.02947
  20609033.996   108301206.59249  20609036.081    84390555.75049
  24056383.521   126417153.08646  24056387.897    98506890.62047
  20682170.240   108685547.42948  20682172.480    84690045.14249
  21544375.527   113216462.82348  21544378.064    88220630.50048
  5  3 12 18  2 15.0000000  0  6G 2G 4G 5G 6G10G30
  20649541.140   108514070.66148  20649540.649    84556412.99949
  23585858.259   123944519.08147  23585861.883    96580146.31147
  20609680.902   108304606.10549  20609682.981    84393204.72849
  24053846.297   126403820.00946  24053850.680    98496501.23547
  20680536.976   108676964.53449  20680539.210    84683357.17249
  21542712.653   113207724.36448  21542715.197    88213821.30848
  5  3 12 18  2 20.0000000  0  6G 2G 4G 5G 6G10G30
  20650918.388   108521308.11749  20650917.897    84562052.56649
  23588703.554   123959471.08447  23588707.184    96591797.19047
  20610379.374   108308276.59949  20610381.459    84396064.84849
  24051357.464   126390741.25946  24051361.859    98486310.02347
  20678955.256   108668652.57248  20678957.491    84676880.33048
  21541101.038   113199255.30148  21541103.583    88207222.04548
  5  3 12 18  2 25.0000000  0  6G 2G 4G 5G 6G10G30
  20652228.467   108528192.63049  20652227.983    84567417.12049
  23591480.169   123974062.20247  23591483.800    96603166.87347
  20611012.265   108311602.46349  20611014.350    84398656.43049
  24048799.898   126377301.22046  24048804.286    98475837.28146
  20677307.950   108659995.95648  20677310.186    84670134.92249
  21539423.550   113190440.07048  21539426.087    88200353.04448
  5  3 12 18  2 30.0000000  0  6G 2G 4G 5G 6G10G30
  20653588.698   108535340.69048  20653588.215    84572987.04249
  23594305.436   123988909.04847  23594309.060    96614735.84147
  20611696.886   108315200.17349  20611698.978    84401459.83849
  24046290.875   126364116.34446  24046295.263    98465563.37746
  20675712.399   108651611.24248  20675714.628    84663601.37949
  21537797.500   113181895.18648  21537800.038    88193694.70648
  5  3 12 18  2 35.0000000  0  6G 2G 4G 5G 6G10G30
  20654940.484   108542444.34549  20654940.016    84578522.34448
  23597120.768   124003703.71947  23597124.385    96626264.15847
  20612374.633   108318761.75949  20612376.725    84404235.09649
  24043771.857   126350878.75246  24043776.243    98455248.35146
  20674109.974   108643190.44548  20674112.197    84657039.72149
  21536164.318   113173312.69248  21536166.855    88187007.03448
  5  3 12 18  2 40.0000000  0  6G 2G 4G 5G 6G10G30
  20656283.853   108549503.79449  20656283.385    84584023.21749
  23599926.186   124018446.25847  23599929.803    96637751.84547
  20613045.552   108322287.46249  20613047.651    84406982.39549
  24041242.801   126337588.62646  24041247.179    98444892.44346
  20672500.723   108634733.80548  20672502.947    84650450.14349
  21534524.012   113164692.82548  21534526.543    88180290.26148
  5  3 12 18  2 45.0000000  0  6G 2G 4G 5G 6G10G30
  20657648.197   108556673.44149  20657647.730    84589609.95048
  23602751.086   124033291.23947  23602754.704    96649319.37247
  20613739.030   108325931.68249  20613741.122    84409822.04549
  24038733.171   126324400.40046  24038737.555    98434615.89146
  20670914.037   108626395.71449  20670916.261    84643952.93149
  21532905.968   113156189.97648  21532908.498    88173664.67048
  5  3 12 18  2 50.0000000  0  6G 2G 4G 5G 6G10G30
  20659033.559   108563953.53549  20659033.099    84595282.74249
  23605595.552   124048238.79147  23605599.183    96660966.75747
  20614455.103   108329694.67149  20614457.195    84412754.24449
  24036242.963   126311314.30246  24036247.339    98424418.93546
  20669349.962   108618176.47748  20669352.186    84637548.33649
  21531310.253   113147804.43748  21531312.777    88167130.48948
  5  3 12 18  2 55.0000000  0  6G 2G 4G 5G 6G10G30
  20660352.063   108570882.32348  20660351.603    84600681.79849
  23608371.629   124062827.23647  23608375.252    96672334.39047
  20615105.913   108333114.69649  20615108.004    84415419.19949
  24033684.330   126297868.62746  24033688.698    98413941.78746
  20667720.644   108609614.34949  20667722.861    84630876.55249
  21529648.988   113139074.46548  21529651.519    88160327.91648
  5  3 12 18  3  0.0000000  0  6G 2G 4G 5G 6G10G30
  20661691.681   108577922.06149  20661691.229    84606167.30949
  23611167.359   124077518.80147  23611170.988    96683782.33747
  20615779.434   108336654.07349  20615781.526    84418177.15649
  24031145.210   126284525.67946  24031149.554    98403544.73246
  20666114.048   108601171.66148  20666116.258    84624297.84749
  21528010.157   113130462.34948  21528012.688    88153617.17748
  5  3 12 18  3  5.0000000  0  6G 2G 4G 5G 6G10G30
  20663052.502   108585073.16048  20663052.050    84611739.58349
  23613982.766   124092313.89447  23613986.395    96695310.98947
  20616475.734   108340313.12349  20616477.833    84421028.35549
  24028625.773   126271285.76245  24028630.114    98393227.85846
  20664530.247   108592848.73548  20664532.459    84617812.45149
  21526393.827   113121968.47748  21526396.351    88146998.57848
  5  3 12 18  3 10.0000000  0  6G 2G 4G 5G 6G10G30
  20664405.233   108592181.81148  20664404.789    84617278.78949
  23616788.598   124107058.64247  23616792.221    96706800.40647
  20617165.535   108343938.08349  20617167.634    84423853.00749
  24026096.627   126257995.25646  24026100.944    98382871.67346
  20662939.966   108584491.81048  20662942.176    84611300.57449
  21524770.744   113113439.11848  21524773.268    88140352.32648
  5  3 12 18  3 15.0000000  0  6G 2G 4G 5G 6G10G30
  20665808.557   108599556.32648  20665808.113    84623025.16749
  23619643.580   124122061.55147  23619647.203    96718490.95747
  20617907.530   108347837.26449  20617909.629    84426891.32149
  24023616.542   126244962.29546  24023620.852    98372716.11146
  20661401.903   108576409.23748  20661404.122    84605002.46649
  21523199.568   113105182.56448  21523202.093    88133918.65748
  5  3 12 18  3 20.0000000  0  6G 2G 4G 5G 6G10G30
  20667145.310   108606580.98049  20667144.874    84628498.91749
  23622430.475   124136706.71747  23622434.105    96729902.76047
  20618584.534   108351394.94349  20618586.634    84429663.54249
  24021068.322   126231571.30746  24021072.616    98362281.57446
  20659798.877   108567985.27748  20659801.088    84598438.34449
  21521563.150   113096583.09748  21521565.675    88127217.76648
  5  3 12 18  3 25.0000000  0  6G 2G 4G 5G 6G10G30
  20668503.451   108613718.06249  20668503.021    84634060.27449
  23625237.266   124151456.47647  23625240.902    96741396.06347
  20619284.530   108355073.41649  20619286.629    84432529.87649
  24018539.902   126218284.49346  24018544.181    98351928.24146
  20658218.862   108559682.24549  20658221.075    84591968.45349
  21519949.449   113088103.04148  21519951.967    88120609.93548
  5  3 12 18  3 30.0000000  0  6G 2G 4G 5G 6G10G30
  20669883.025   108620967.77149  20669882.596    84639709.40049
  23628064.004   124166311.04947  23628067.640    96752971.05247
  20620007.545   108358872.91849  20620009.645    84435490.53649
  24016031.355   126205102.08346  24016035.632    98341656.24946
  20656661.901   108551500.39048  20656664.108    84585592.99549
  21518358.498   113079742.60048  21518361.010    88114095.32448
  5  3 12 18  3 35.0000000  0  6G 2G 4G 5G 6G10G30
  20671225.478   108628022.37849  20671225.056    84645206.48849
  23630852.148   124180962.78347  23630855.784    96764387.97047
  20620695.025   108362485.68049  20620697.131    84438305.67749
  24013484.098   126191716.34446  24013488.374    98331225.83846
  20655069.444   108543131.97148  20655071.651    84579072.14949
  21516731.764   113071194.08648  21516734.275    88107434.14948
  5  3 12 18  3 40.0000000  0  6G 2G 4G 5G 6G10G30
  20672618.765   108635344.11749  20672618.350    84650911.73249
  23633689.629   124195873.78447  23633693.259    96776006.92647
  20621434.946   108366373.95949  20621437.052    84441335.49949
  24010986.134   126178589.58046  24010990.422    98320997.20646
  20653529.453   108535039.26648  20653531.661    84572766.14749
  21515157.206   113062919.69848  21515159.719    88100986.57248
  5  3 12 18  3 45.0000000  0  6G 2G 4G 5G 6G10G30
  20673945.715   108642317.29148  20673945.301    84656345.37449
  23636459.274   124210428.36647  23636462.904    96787348.16047
  20622110.130   108369922.04448  20622112.237    84444100.23749
  24008420.314   126165106.07846  24008424.602    98310490.57147
  20651924.755   108526606.54948  20651926.962    84566195.20849
  21513517.649   113054303.80148  21513520.161    88094272.89148
  5  3 12 18  3 50.0000000  0  6G 2G 4G 5G 6G10G30
  20675323.596   108649558.10448  20675323.189    84661987.56649
  23639278.382   124225242.78947  23639282.019    96798891.83847
  20622837.833   108373746.14849  20622839.933    84447080.06148
  24005903.840   126151882.03946  24005908.126    98300186.14847
  20650372.629   108518450.04149  20650374.830    84559839.48649
  21511930.372   113045962.57248  21511932.885    88087773.22948
  5  3 12 18  3 55.0000000  0  6G 2G 4G 5G 6G10G30
  20676693.865   108656758.88349  20676693.465    84667598.55449
  23642088.367   124240009.38647  23642092.003    96810398.28647
  20623559.508   108377538.57749  20623561.615    84450035.19649
  24003378.230   126138609.80646  24003382.523    98289844.13046
  20648814.507   108510262.09048  20648816.710    84553459.27549
  21510336.804   113037588.37648  21510339.318    88081247.89948
  5  3 12 18  4  0.0000000  0  6G 2G 4G 5G 6G10G30
  20678056.563   108663919.90849  20678056.163    84673178.57349
  23644889.336   124254728.48447  23644892.980    96821867.69247
  20624275.215   108381299.64349  20624277.322    84452965.89749
  24000843.464   126125289.67846  24000847.742    98279464.84646
  20647250.467   108502043.03248  20647252.669    84547054.81949
  21508737.038   113029181.51848  21508739.552    88074697.09548
  5  3 12 18  4  5.0000000  0  6G 2G 4G 5G 6G10G30
  20679470.347   108671349.36448  20679469.949    84678967.75949
  23647739.891   124269708.22147  23647743.528    96833540.21047
  20625043.607   108385337.54149  20625045.715    84456112.30849
  23998358.267   126112229.84746  23998362.545    98269288.34646
  20645739.158   108494101.05248  20645741.354    84540866.27149
  21507189.693   113021050.19848  21507192.201    88068361.01448
  5  3 12 18  4 10.0000000  0  6G 2G 4G 5G 6G10G30
  20680876.646   108678739.48548  20680876.248    84684726.28949
  23650581.469   124284640.75347  23650585.107    96845175.93747
  20625806.108   108389344.50849  20625808.215    84459234.61749
  23995864.012   126099122.60546  23995868.276    98259074.95046
  20644222.011   108486128.39049  20644224.215    84534653.80649
  21505636.226   113012886.67348  21505638.735    88061999.82848
  5  3 12 18  4 15.0000000  0  6G 2G 4G 5G 6G10G30
  20682246.170   108685936.38248  20682245.780    84690334.25949
  23653384.800   124299372.26147  23653388.443    96856655.00647
  20626533.436   108393166.64249  20626535.551    84462212.90349
  23993331.472   126085813.98646  23993335.734    98248704.58547
  20642669.730   108477971.15848  20642671.927    84528297.54049
  21504047.344   113004537.04048  21504049.853    88055493.62348
  5  3 12 18  4 20.0000000  0  6G 2G 4G 5G 6G10G30
  20683608.314   108693094.46648  20683607.924    84695911.98049
  23656179.263   124314057.20446  23656182.914    96868097.80447
  20627254.984   108396958.37449  20627257.092    84465167.49649
  23990789.980   126072458.45146  23990794.222    98238297.70747
  20641111.746   108469783.83448  20641113.937    84521917.80049
  21502452.433   112996155.72648  21502454.942    88048962.72948
  5  3 12 18  4 25.0000000  0  6G 2G 4G 5G 6G10G30
  20684992.444   108700368.14849  20684992.060    84701579.78849
  23658994.225   124328849.92747  23658997.869    96879624.60747
  20628000.115   108400874.09249  20628002.223    84468218.71249
  23988268.970   126059210.42146  23988273.212    98227974.56047
  20639577.391   108461720.78048  20639579.590    84515634.90749
  21500880.873   112987897.18648  21500883.383    88042527.52148
  5  3 12 18  4 30.0000000  0  6G 2G 4G 5G 6G10G30
  20686339.985   108707449.49148  20686339.602    84707097.71649
  23661771.111   124343442.56346  23661774.755    96890995.49047
  20628710.257   108404605.88349  20628712.373    84471126.59449
  23985709.830   126045761.96046  23985714.073    98217495.22047
  20638008.097   108453474.11049  20638010.295    84509208.93949
  21499274.094   112979453.47548  21499276.605    88035948.00048
  5  3 12 18  4 35.0000000  0  6G 2G 4G 5G 6G10G30
  20687738.901   108714800.87548  20687738.518    84712826.07249
  23664597.927   124358297.45846  23664601.572    96902570.70847
  20629473.386   108408616.15649  20629475.502    84474251.48349
  23983200.508   126032575.47746  23983204.744    98207220.06347
  20636491.855   108445506.20848  20636494.053    84503000.18249
  21497720.078   112971287.06748  21497722.582    88029584.56948
  5  3 12 18  4 40.0000000  0  6G 2G 4G 5G 6G10G30
  20689130.667   108722114.62649  20689130.291    84718525.08749
  23667416.069   124373106.86347  23667419.714    96914110.49647
  20630230.947   108412597.19549  20630233.063    84477353.59649
  23980682.483   126019343.32346  23980686.700    98196909.34247
  20634970.106   108437509.36148  20634972.298    84496768.87948
  21496160.255   112963090.20348  21496162.765    88023197.41148
  5  3 12 18  4 45.0000000  0  6G 2G 4G 5G 6G10G30
  20690486.002   108729236.95748  20690485.633    84724074.95649
  23670196.315   124387717.09247  23670199.954    96925495.08447
  20630953.702   108416395.23849  20630955.818    84480313.09649
  23978126.517   126005911.63046  23978130.735    98186443.09147
  20633413.597   108429329.85449  20633415.797    84490395.23749
  21494565.388   112954709.12248  21494567.906    88016666.69748
  5  3 12 18  4 50.0000000  0  6G 2G 4G 5G 6G10G30
  20691922.178   108736784.08348  20691921.816    84729955.82349
  23673055.917   124402744.30646  23673059.555    96937204.57947
  20631758.890   108420626.52649  20631761.006    84483610.20749
  23975649.835   125992896.64246  23975654.053    98176301.55747
  20631939.591   108421583.93048  20631941.791    84484359.46048
  21493052.739   112946760.09648  21493055.250    88010472.65648
  5  3 12 18  4 55.0000000  0  6G 2G 4G 5G 6G10G30
  20693263.403   108743832.26648  20693263.040    84735447.91249
  23675819.070   124417264.77147  23675822.708    96948519.22847
  20632470.739   108424367.31749  20632472.856    84486525.11149
  23973076.666   125979374.70146  23973080.876    98165765.01547
  20630372.315   108413347.87248  20630374.514    84477941.75549
  21491446.529   112938319.40448  21491449.040    88003895.49548
  5  3 12 18  5  0.0000000  0  6G 2G 4G 5G 6G10G30
  20694656.240   108751151.70548  20694655.877    84741151.37849
  23678632.388   124432048.73447  23678636.026    96960039.17147
  20633235.805   108428387.76749  20633237.922    84489657.92949
  23970553.601   125966116.03346  23970557.812    98155433.61346
  20628858.332   108405391.86648  20628860.531    84471742.27949
  21489893.315   112930157.21048  21489895.820    87997535.34848
  5  3 12 18  5  5.0000000  0  6G 2G 4G 5G 6G10G30
  20696071.449   108758588.64748  20696071.093    84746946.38749
  23681466.574   124446942.45046  23681470.212    96971644.65847
  20634024.850   108432534.19949  20634026.968    84492888.91149
  23968051.399   125952966.90446  23968055.629    98145187.53146
  20627368.395   108397562.19548  20627370.595    84465641.23849
  21488363.852   112922119.86348  21488366.364    87991272.48148
  5  3 12 18  5 10.0000000  0  6G 2G 4G 5G 6G10G30
  20697479.752   108765989.29949  20697479.403    84752713.11949
  23684292.375   124461792.10647  23684296.021    96983215.81047
  20634808.592   108436652.78649  20634810.710    84496098.20149
  23965540.749   125939773.44046  23965544.978    98134906.92847
  20625873.230   108389705.05248  20625875.423    84459518.79249
  21486828.877   112914053.51048  21486831.388    87984987.01148
  5  3 12 18  5 15.0000000  0  6G 2G 4G 5G 6G10G30
  20698822.591   108773045.96548  20698822.243    84758211.82448
  23687051.242   124476289.95646  23687054.881    96994512.81847
  20635528.482   108440435.80649  20635530.600    84499046.00349
  23962963.156   125926228.03346  23962967.383    98124352.04747
  20624314.278   108381512.76448  20624316.471    84453135.20648
  21485229.831   112905650.50048  21485232.342    87978439.21848
  5  3 12 18  5 20.0000000  0  6G 2G 4G 5G 6G10G30
  20700217.234   108780374.86648  20700216.887    84763922.65748
  23689860.446   124491052.35846  23689864.098    97006015.96547
  20636301.781   108444499.51849  20636303.899    84502212.53349
  23960435.826   125912946.88746  23960440.053    98114003.11347
  20622808.835   108373601.57948  20622811.029    84446970.64249
  21483683.992   112897527.09448  21483686.497    87972109.30448
  5  3 12 18  5 25.0000000  0  6G 2G 4G 5G 6G10G30
  20701634.431   108787822.25248  20701634.091    84769725.80949
  23692690.694   124505925.37947  23692694.346    97017605.32747
  20637099.236   108448690.17549  20637101.355    84505477.98149
  23957929.530   125899776.24746  23957933.751    98103740.28847
  20621327.631   108365817.76948  20621329.819    84440905.33349
  21482162.121   112889529.54448  21482164.633    87965877.43148
  5  3 12 18  5 30.0000000  0  6G 2G 4G 5G 6G10G30
  20703044.891   108795234.27249  20703044.558    84775501.40649
  23695512.750   124520755.38446  23695516.402    97029161.17347
  20637891.574   108452853.93849  20637893.692    84508722.47048
  23955414.988   125886562.33546  23955419.202    98093443.75747
  20619841.379   108358007.51948  20619843.566    84434819.43949
  21480634.908   112881504.01648  21480637.413    87959623.78148
  5  3 12 18  5 35.0000000  0  6G 2G 4G 5G 6G10G30
  20704477.982   108802765.18548  20704477.650    84781369.64649
  23698355.941   124535696.45546  23698359.593    97040803.56647
  20638708.157   108457145.07949  20638710.276    84512066.21449
  23952921.588   125873459.36547  23952925.802    98083233.63847
  20618379.462   108350325.09548  20618381.656    84428833.13049
  21479131.723   112873604.75749  21479134.228    87953468.52348
  5  3 12 18  5 40.0000000  0  6G 2G 4G 5G 6G10G30
  20705845.832   108809953.28348  20705845.499    84786970.75849
  23701132.451   124550286.95746  23701136.109    97052172.74947
  20639461.105   108461101.84449  20639463.230    84515149.40349
  23950361.415   125860005.62547  23950365.616    98072750.22847
  20616854.000   108342308.77248  20616856.188    84422586.65648
  21477564.725   112865370.09548  21477567.229    87947051.89348
  5  3 12 18  5 45.0000000  0  6G 2G 4G 5G 6G10G30
  20707265.710   108817414.79248  20707265.391    84792784.91749
  23703959.492   124565143.12847  23703963.152    97063748.98347
  20640267.689   108465340.47449  20640269.815    84518452.23249
  23947851.761   125846817.37046  23947855.956    98062473.68547
  20615382.275   108334574.80649  20615384.462    84416560.18649
  21476051.152   112857416.24548  21476053.656    87940854.09548
  5  3 12 18  5 50.0000000  0  6G 2G 4G 5G 6G10G30
  20708649.742   108824687.93148  20708649.424    84798452.29949
  23706749.201   124579803.14446  23706752.851    97075172.36947
  20641040.052   108469399.23849  20641042.172    84521614.90449
  23945304.776   125833432.84046  23945308.978    98052044.17147
  20613876.398   108326661.42848  20613878.578    84410393.93649
  21474503.156   112849281.50748  21474505.654    87934515.34748
  5  3 12 18  5 55.0000000  0  6G 2G 4G 5G 6G10G30
  20710056.563   108832080.79748  20710056.245    84804212.96749
  23709560.229   124594575.13446  23709563.886    97086682.99147
  20641836.806   108473586.20749  20641838.926    84524877.47949
  23942779.047   125820160.17246  23942783.242    98041701.86447
  20612395.026   108318876.76548  20612397.206    84404327.96348
  21472979.357   112841273.91648  21472981.853    87928275.67048
  5  3 12 18  6  0.0000000  0  6G 2G 4G 5G 6G10G30
  20711456.979   108839440.03048  20711456.655    84809947.44049
  23712363.370   124609305.80546  23712367.014    97098161.45747
  20642628.763   108477748.00449  20642630.891    84528120.44349
  23940245.420   125806845.96346  23940249.608    98031327.17947
  20610908.960   108311067.43948  20610911.140    84398242.77248
  21471450.596   112833240.19648  21471453.094    87922015.62648
  5  3 12 18  6  5.0000000  0  6G 2G 4G 5G 6G10G30
  20712850.991   108846765.61348  20712850.681    84815655.68149
  23715158.659   124623995.02146  23715162.310    97109607.57147
  20643415.940   108481884.64649  20643418.067    84531343.79849
  23937703.918   125793490.22146  23937708.106    98020920.09347
  20609418.202   108303233.47948  20609420.382    84392138.39748
  21469916.842   112825180.29348  21469919.333    87915735.19248
  5  3 12 18  6 10.0000000  0  6G 2G 4G 5G 6G10G30
  20714267.922   108854211.63849  20714267.613    84821457.78149
  23717975.369   124638796.92947  23717979.019    97121141.52546
  20644227.653   108486150.19449  20644229.781    84534667.60149
  23935183.808   125780247.07547  23935187.989    98010600.78747
  20607952.085   108295528.98448  20607954.259    84386134.89948
  21468407.432   112817248.32248  21468409.924    87909554.44648
  5  3 12 18  6 15.0000000  0  6G 2G 4G 5G 6G10G30
  20715707.826   108861778.34948  20715707.516    84827353.91449
  23720813.602   124653711.78946  23720817.266    97132763.45347
  20645063.943   108490544.92749  20645066.078    84538092.06549
  23932685.175   125767116.73247  23932689.349    98000369.37247
  20606510.652   108287954.20648  20606512.826    84380232.47449
  21466922.447   112809444.57748  21466924.939    87903473.58748
  5  3 12 18  6 20.0000000  0  6G 2G 4G 5G 6G10G30
  20717082.825   108869004.01848  20717082.529    84832984.29849
  23723585.455   124668277.85046  23723589.119    97144113.60346
  20645836.951   108494607.08349  20645839.080    84541257.37849
  23930120.159   125753637.51547  23930124.327    97989866.09847
  20605006.038   108280047.43748  20605008.211    84374071.35849
  21465373.956   112801307.29848  21465376.448    87897132.87048
  5  3 12 18  6 25.0000000  0  6G 2G 4G 5G 6G10G30
  20718510.195   108876504.89848  20718509.900    84838829.14349
  23726408.174   124683111.40146  23726411.845    97155672.22547
  20646663.937   108498952.92349  20646666.073    84544643.74649
  23927606.035   125740425.64147  23927610.204    97979571.11947
  20603555.525   108272424.93948  20603557.691    84368131.75449
  21463879.289   112793452.77148  21463881.781    87891012.45848
